Wetterdaten: Sonntag, 27.09.2009
Datum Zeit Temp. Innen Temp. Aussen UV X Diff Temp. Feuchte Inne Feuchte Auss Sonnenschein Luftdruck Regen ab 0,1 Wind Sonnenschein Windben
27.09.2009 00:03 19,8 C 10,3 C 0,0 UV-I 0,0 C 53 % 86 % 0 % 1026,8 hPa 0,0 l/m 0,0 km/h (0 Bft) 0 min 0,0 km/h (0 Bft)
27.09.2009 00:08 19,8 C 10,3 C 0,0 UV-I 0,0 C 53 % 86 % 0 % 1026,8 hPa 0,0 l/m 0,0 km/h (0 Bft) 0 min 0,0 km/h (0 Bft)
27.09.2009 00:13 19,8 C 10,3 C 0,0 UV-I 0,0 C 53 % 86 % 0 % 1026,8 hPa 0,0 l/m 0,0 km/h (0 Bft) 0 min 0,0 km/h (0 Bft)
27.09.2009 00:18 19,8 C 10,1 C 0,0 UV-I 0,0 C 53 % 86 % 0 % 1027,0 hPa 0,0 l/m 0,0 km/h (0 Bft) 0 min 0,0 km/h (0 Bft)
27.09.2009 00:23 19,7 C 10,0 C 0,0 UV-I 0,0 C 53 % 86 % 0 % 1027,0 hPa 0,0 l/m 0,0 km/h (0 Bft) 0 min 0,0 km/h (0 Bft)
27.09.2009 00:28 19,7 C 10,0 C 0,0 UV-I 0,0 C 53 % 86 % 0 % 1027,0 hPa 0,0 l/m 0,0 km/h (0 Bft) 0 min 0,0 km/h (0 Bft)
27.09.2009 00:33 19,7 C 9,9 C 0,0 UV-I 0,0 C 53 % 86 % 0 % 1027,0 hPa 0,0 l/m 0,0 km/h (0 Bft) 0 min 0,0 km/h (0 Bft)
27.09.2009 00:38 19,7 C 9,9 C 0,0 UV-I 0,0 C 53 % 87 % 0 % 1026,9 hPa 0,0 l/m 0,0 km/h (0 Bft) 0 min 0,0 km/h (0 Bft)
27.09.2009 00:43 19,7 C 9,9 C 0,0 UV-I 0,0 C 53 % 87 % 0 % 1026,9 hPa 0,0 l/m 0,0 km/h (0 Bft) 0 min 0,0 km/h (0 Bft)
27.09.2009 00:48 19,7 C 9,8 C 0,0 UV-I 0,0 C 53 % 87 % 0 % 1026,9 hPa 0,0 l/m 0,0 km/h (0 Bft) 0 min 0,0 km/h (0 Bft)
27.09.2009 00:53 19,6 C 9,7 C 0,0 UV-I 0,0 C 53 % 87 % 0 % 1026,9 hPa 0,0 l/m 0,0 km/h (0 Bft) 0 min 0,0 km/h (0 Bft)
27.09.2009 00:58 19,6 C 9,6 C 0,0 UV-I 0,0 C 53 % 87 % 0 % 1026,8 hPa 0,0 l/m 0,0 km/h (0 Bft) 0 min 0,0 km/h (0 Bft)
27.09.2009 01:03 19,6 C 9,6 C 0,0 UV-I 0,0 C 53 % 88 % 0 % 1026,8 hPa 0,0 l/m 0,0 km/h (0 Bft) 0 min 0,0 km/h (0 Bft)
27.09.2009 01:08 19,6 C 9,6 C 0,0 UV-I 0,0 C 53 % 88 % 0 % 1026,8 hPa 0,0 l/m 0,0 km/h (0 Bft) 0 min 0,0 km/h (0 Bft)
27.09.2009 01:13 19,6 C 9,5 C 0,0 UV-I 0,0 C 53 % 88 % 0 % 1026,8 hPa 0,0 l/m 0,0 km/h (0 Bft) 0 min 0,0 km/h (0 Bft)
27.09.2009 01:18 19,6 C 9,4 C 0,0 UV-I 0,0 C 53 % 88 % 0 % 1026,9 hPa 0,0 l/m 0,0 km/h (0 Bft) 0 min 0,0 km/h (0 Bft)
27.09.2009 01:23 19,5 C 9,5 C 0,0 UV-I 0,0 C 53 % 88 % 0 % 1026,9 hPa 0,0 l/m 0,0 km/h (0 Bft) 0 min 0,0 km/h (0 Bft)
27.09.2009 01:28 19,5 C 9,5 C 0,0 UV-I 0,0 C 53 % 88 % 0 % 1026,9 hPa 0,0 l/m 0,0 km/h (0 Bft) 0 min 0,0 km/h (0 Bft)
27.09.2009 01:33 19,5 C 9,3 C 0,0 UV-I 0,0 C 53 % 88 % 0 % 1026,9 hPa 0,0 l/m 0,0 km/h (0 Bft) 0 min 0,0 km/h (0 Bft)
27.09.2009 01:38 19,5 C 9,3 C 0,0 UV-I 0,0 C 53 % 88 % 0 % 1026,9 hPa 0,0 l/m 0,0 km/h (0 Bft) 0 min 0,0 km/h (0 Bft)
27.09.2009 01:43 19,5 C 9,2 C 0,0 UV-I 0,0 C 53 % 88 % 0 % 1026,9 hPa 0,0 l/m 0,0 km/h (0 Bft) 0 min 0,0 km/h (0 Bft)
27.09.2009 01:48 19,5 C 9,3 C 0,0 UV-I 0,0 C 53 % 89 % 0 % 1026,9 hPa 0,0 l/m 0,0 km/h (0 Bft) 0 min 0,0 km/h (0 Bft)
27.09.2009 01:53 19,4 C 9,2 C 0,0 UV-I 0,0 C 53 % 89 % 0 % 1026,9 hPa 0,0 l/m 0,0 km/h (0 Bft) 0 min 0,0 km/h (0 Bft)
27.09.2009 01:58 19,4 C 9,1 C 0,0 UV-I 0,0 C 53 % 89 % 0 % 1026,6 hPa 0,0 l/m 0,0 km/h (0 Bft) 0 min 0,0 km/h (0 Bft)
27.09.2009 02:03 19,4 C 9,1 C 0,0 UV-I 0,0 C 53 % 89 % 0 % 1026,6 hPa 0,0 l/m 0,0 km/h (0 Bft) 0 min 0,0 km/h (0 Bft)
27.09.2009 02:08 19,4 C 9,1 C 0,0 UV-I 0,0 C 53 % 89 % 0 % 1026,6 hPa 0,0 l/m 0,0 km/h (0 Bft) 0 min 0,0 km/h (0 Bft)
27.09.2009 02:13 19,4 C 9,1 C 0,0 UV-I 0,0 C 53 % 89 % 0 % 1026,6 hPa 0,0 l/m 0,0 km/h (0 Bft) 0 min 0,0 km/h (0 Bft)
27.09.2009 02:18 19,4 C 9,1 C 0,0 UV-I 0,0 C 53 % 89 % 0 % 1026,5 hPa 0,0 l/m 0,0 km/h (0 Bft) 0 min 0,0 km/h (0 Bft)
27.09.2009 02:23 19,2 C 9,0 C 0,0 UV-I 0,0 C 53 % 89 % 0 % 1026,5 hPa 0,0 l/m 0,0 km/h (0 Bft) 0 min 0,0 km/h (0 Bft)
27.09.2009 02:28 19,2 C 8,9 C 0,0 UV-I 0,0 C 53 % 89 % 0 % 1026,5 hPa 0,0 l/m 0,0 km/h (0 Bft) 0 min 0,0 km/h (0 Bft)
27.09.2009 02:33 19,3 C 8,9 C 0,0 UV-I 0,0 C 53 % 89 % 0 % 1026,5 hPa 0,0 l/m 0,0 km/h (0 Bft) 0 min 0,0 km/h (0 Bft)
27.09.2009 02:38 19,2 C 8,8 C 0,0 UV-I 0,0 C 53 % 90 % 0 % 1026,4 hPa 0,0 l/m 0,0 km/h (0 Bft) 0 min 0,0 km/h (0 Bft)
27.09.2009 02:43 19,2 C 8,8 C 0,0 UV-I 0,0 C 53 % 90 % 0 % 1026,4 hPa 0,0 l/m 0,0 km/h (0 Bft) 0 min 0,0 km/h (0 Bft)
27.09.2009 02:48 19,2 C 8,8 C 0,0 UV-I 0,0 C 53 % 90 % 0 % 1026,4 hPa 0,0 l/m 0,0 km/h (0 Bft) 0 min 0,0 km/h (0 Bft)
27.09.2009 02:53 19,2 C 8,8 C 0,0 UV-I 0,0 C 53 % 90 % 0 % 1026,4 hPa 0,0 l/m 0,0 km/h (0 Bft) 0 min 0,0 km/h (0 Bft)
27.09.2009 02:58 19,2 C 8,8 C 0,0 UV-I 0,0 C 54 % 90 % 0 % 1026,4 hPa 0,0 l/m 0,0 km/h (0 Bft) 0 min 0,0 km/h (0 Bft)
27.09.2009 03:03 19,2 C 8,7 C 0,0 UV-I 0,0 C 53 % 90 % 0 % 1026,4 hPa 0,0 l/m 0,0 km/h (0 Bft) 0 min 0,0 km/h (0 Bft)
27.09.2009 03:08 19,2 C 8,7 C 0,0 UV-I 0,0 C 53 % 90 % 0 % 1026,4 hPa 0,0 l/m 0,0 km/h (0 Bft) 0 min 0,0 km/h (0 Bft)
27.09.2009 03:13 19,2 C 8,7 C 0,0 UV-I 0,0 C 53 % 90 % 0 % 1026,4 hPa 0,0 l/m 0,0 km/h (0 Bft) 0 min 0,0 km/h (0 Bft)
27.09.2009 03:18 19,1 C 8,6 C 0,0 UV-I 0,0 C 53 % 90 % 0 % 1026,4 hPa 0,0 l/m 0,0 km/h (0 Bft) 0 min 0,0 km/h (0 Bft)
27.09.2009 03:23 19,1 C 8,5 C 0,0 UV-I 0,0 C 53 % 90 % 0 % 1026,4 hPa 0,0 l/m 0,0 km/h (0 Bft) 0 min 0,0 km/h (0 Bft)
27.09.2009 03:28 19,1 C 8,5 C 0,0 UV-I 0,0 C 53 % 90 % 0 % 1026,4 hPa 0,0 l/m 0,0 km/h (0 Bft) 0 min 0,0 km/h (0 Bft)
27.09.2009 03:33 19,1 C 8,4 C 0,0 UV-I 0,0 C 53 % 90 % 0 % 1026,4 hPa 0,0 l/m 0,0 km/h (0 Bft) 0 min 0,0 km/h (0 Bft)
27.09.2009 03:38 19,1 C 8,5 C 0,0 UV-I 0,0 C 53 % 90 % 0 % 1026,4 hPa 0,0 l/m 0,0 km/h (0 Bft) 0 min 0,0 km/h (0 Bft)
27.09.2009 03:43 19,1 C 8,4 C 0,0 UV-I 0,0 C 53 % 90 % 0 % 1026,4 hPa 0,0 l/m 0,0 km/h (0 Bft) 0 min 0,0 km/h (0 Bft)
27.09.2009 03:48 19,0 C 8,3 C 0,0 UV-I 0,0 C 53 % 90 % 0 % 1026,4 hPa 0,0 l/m 0,0 km/h (0 Bft) 0 min 0,0 km/h (0 Bft)
27.09.2009 03:53 19,0 C 8,3 C 0,0 UV-I 0,0 C 53 % 90 % 0 % 1026,4 hPa 0,0 l/m 0,0 km/h (0 Bft) 0 min 0,0 km/h (0 Bft)
27.09.2009 03:58 19,0 C 8,2 C 0,0 UV-I 0,0 C 53 % 90 % 0 % 1026,5 hPa 0,0 l/m 0,0 km/h (0 Bft) 0 min 0,0 km/h (0 Bft)
27.09.2009 04:03 19,0 C 8,3 C 0,0 UV-I 0,0 C 53 % 90 % 0 % 1026,5 hPa 0,0 l/m 0,0 km/h (0 Bft) 0 min 0,0 km/h (0 Bft)
27.09.2009 04:08 19,0 C 8,1 C 0,0 UV-I 0,0 C 53 % 90 % 0 % 1026,5 hPa 0,0 l/m 0,0 km/h (0 Bft) 0 min 0,0 km/h (0 Bft)
27.09.2009 04:13 18,9 C 8,1 C 0,0 UV-I 0,0 C 53 % 90 % 0 % 1026,5 hPa 0,0 l/m 0,0 km/h (0 Bft) 0 min 0,0 km/h (0 Bft)
27.09.2009 04:15 18,9 C 8,1 C 0,0 UV-I 0,0 C 53 % 90 % 0 % 1026,3 hPa 0,0 l/m 0,0 km/h (0 Bft) 0 min 0,0 km/h (0 Bft)
27.09.2009 04:16 18,9 C 8,1 C 0,0 UV-I 0,0 C 53 % 90 % 0 % 1026,3 hPa 0,0 l/m 0,0 km/h (0 Bft) 0 min 0,0 km/h (0 Bft)
27.09.2009 04:18 19,0 C 8,1 C 0,0 UV-I 0,0 C 53 % 90 % 0 % 1026,3 hPa 0,0 l/m 0,0 km/h (0 Bft) 0 min 0,0 km/h (0 Bft)
27.09.2009 04:20 18,9 C 8,0 C 0,0 UV-I 0,0 C 53 % 90 % 0 % 1026,3 hPa 0,0 l/m 0,0 km/h (0 Bft) 0 min 0,0 km/h (0 Bft)
27.09.2009 04:22 18,9 C 8,0 C 0,0 UV-I 0,0 C 53 % 90 % 0 % 1026,3 hPa 0,0 l/m 0,0 km/h (0 Bft) 0 min 0,0 km/h (0 Bft)
27.09.2009 04:24 18,9 C 8,1 C 0,0 UV-I 0,0 C 53 % 90 % 0 % 1026,3 hPa 0,0 l/m 0,0 km/h (0 Bft) 0 min 0,0 km/h (0 Bft)
27.09.2009 04:26 19,0 C 8,0 C 0,0 UV-I 0,0 C 53 % 90 % 0 % 1026,3 hPa 0,0 l/m 0,0 km/h (0 Bft) 0 min 0,0 km/h (0 Bft)
27.09.2009 04:28 18,9 C 8,0 C 0,0 UV-I 0,0 C 53 % 90 % 0 % 1026,3 hPa 0,0 l/m 0,0 km/h (0 Bft) 0 min 0,0 km/h (0 Bft)
27.09.2009 04:30 19,0 C 8,0 C 0,0 UV-I 0,0 C 53 % 90 % 0 % 1026,3 hPa 0,0 l/m 0,0 km/h (0 Bft) 0 min 0,0 km/h (0 Bft)
27.09.2009 04:32 18,9 C 8,0 C 0,0 UV-I 0,0 C 53 % 90 % 0 % 1026,3 hPa 0,0 l/m 0,0 km/h (0 Bft) 0 min 0,0 km/h (0 Bft)
27.09.2009 04:34 18,9 C 7,9 C 0,0 UV-I 0,0 C 53 % 90 % 0 % 1026,3 hPa 0,0 l/m 0,0 km/h (0 Bft) 0 min 0,0 km/h (0 Bft)
27.09.2009 04:36 18,9 C 8,0 C 0,0 UV-I 0,0 C 53 % 90 % 0 % 1026,1 hPa 0,0 l/m 0,0 km/h (0 Bft) 0 min 0,0 km/h (0 Bft)
27.09.2009 04:38 18,9 C 7,9 C 0,0 UV-I 0,0 C 53 % 90 % 0 % 1026,1 hPa 0,0 l/m 0,0 km/h (0 Bft) 0 min 0,0 km/h (0 Bft)
27.09.2009 04:40 18,9 C 7,9 C 0,0 UV-I 0,0 C 52 % 90 % 0 % 1026,1 hPa 0,0 l/m 0,0 km/h (0 Bft) 0 min 0,0 km/h (0 Bft)
27.09.2009 04:42 18,9 C 7,9 C 0,0 UV-I 0,0 C 52 % 91 % 0 % 1026,1 hPa 0,0 l/m 0,0 km/h (0 Bft) 0 min 0,0 km/h (0 Bft)
27.09.2009 04:46 18,9 C 7,9 C 0,0 UV-I 0,0 C 53 % 91 % 0 % 1026,1 hPa 0,0 l/m 0,2 km/h (0 Bft) 0 min 0,0 km/h (0 Bft)
27.09.2009 04:48 18,9 C 8,0 C 0,0 UV-I 0,0 C 53 % 91 % 0 % 1026,1 hPa 0,0 l/m 0,2 km/h (0 Bft) 0 min 0,0 km/h (0 Bft)
27.09.2009 04:50 18,8 C 8,0 C 0,0 UV-I 0,0 C 53 % 91 % 0 % 1026,1 hPa 0,0 l/m 0,2 km/h (0 Bft) 0 min 2,4 km/h (1 Bft)
27.09.2009 04:52 18,8 C 8,0 C 0,0 UV-I 0,0 C 53 % 91 % 0 % 1026,1 hPa 0,0 l/m 0,2 km/h (0 Bft) 0 min 0,0 km/h (0 Bft)
27.09.2009 04:54 18,8 C 8,0 C 0,0 UV-I 0,0 C 53 % 91 % 0 % 1026,1 hPa 0,0 l/m 0,2 km/h (0 Bft) 0 min 0,0 km/h (0 Bft)
27.09.2009 04:56 18,8 C 8,0 C 0,0 UV-I 0,0 C 53 % 91 % 0 % 1026,2 hPa 0,0 l/m 0,2 km/h (0 Bft) 0 min 0,0 km/h (0 Bft)
27.09.2009 04:58 18,9 C 7,9 C 0,0 UV-I 0,0 C 53 % 91 % 0 % 1026,2 hPa 0,0 l/m 0,2 km/h (0 Bft) 0 min 0,0 km/h (0 Bft)
27.09.2009 05:00 18,9 C 7,9 C 0,0 UV-I 0,0 C 53 % 91 % 0 % 1026,2 hPa 0,0 l/m 0,2 km/h (0 Bft) 0 min 0,0 km/h (0 Bft)
27.09.2009 05:02 18,8 C 7,9 C 0,0 UV-I 0,0 C 53 % 91 % 0 % 1026,2 hPa 0,0 l/m 0,0 km/h (0 Bft) 0 min 0,0 km/h (0 Bft)
27.09.2009 05:04 18,8 C 7,9 C 0,0 UV-I 0,0 C 53 % 91 % 0 % 1026,2 hPa 0,0 l/m 0,0 km/h (0 Bft) 0 min 0,0 km/h (0 Bft)
27.09.2009 05:06 18,9 C 7,9 C 0,0 UV-I 0,0 C 53 % 91 % 0 % 1026,2 hPa 0,0 l/m 0,0 km/h (0 Bft) 0 min 0,0 km/h (0 Bft)
27.09.2009 05:08 18,8 C 7,9 C 0,0 UV-I 0,0 C 53 % 91 % 0 % 1026,2 hPa 0,0 l/m 0,0 km/h (0 Bft) 0 min 0,0 km/h (0 Bft)
27.09.2009 05:10 18,8 C 7,8 C 0,0 UV-I 0,0 C 53 % 91 % 0 % 1026,2 hPa 0,0 l/m 0,0 km/h (0 Bft) 0 min 0,0 km/h (0 Bft)
27.09.2009 05:12 18,8 C 7,8 C 0,0 UV-I 0,0 C 53 % 91 % 0 % 1026,2 hPa 0,0 l/m 0,0 km/h (0 Bft) 0 min 0,0 km/h (0 Bft)
27.09.2009 05:14 18,8 C 7,7 C 0,0 UV-I 0,0 C 53 % 91 % 0 % 1026,2 hPa 0,0 l/m 0,0 km/h (0 Bft) 0 min 0,0 km/h (0 Bft)
27.09.2009 05:16 18,8 C 7,7 C 0,0 UV-I 0,0 C 53 % 91 % 0 % 1026,2 hPa 0,0 l/m 0,0 km/h (0 Bft) 0 min 0,0 km/h (0 Bft)
27.09.2009 05:18 18,8 C 7,7 C 0,0 UV-I 0,0 C 53 % 91 % 0 % 1026,2 hPa 0,0 l/m 0,0 km/h (0 Bft) 0 min 0,0 km/h (0 Bft)
27.09.2009 05:20 18,8 C 7,7 C 0,0 UV-I 0,0 C 53 % 91 % 0 % 1026,2 hPa 0,0 l/m 0,0 km/h (0 Bft) 0 min 0,0 km/h (0 Bft)
27.09.2009 05:22 18,8 C 7,7 C 0,0 UV-I 0,0 C 53 % 91 % 0 % 1026,2 hPa 0,0 l/m 0,0 km/h (0 Bft) 0 min 0,0 km/h (0 Bft)
27.09.2009 05:24 18,8 C 7,6 C 0,0 UV-I 0,0 C 53 % 91 % 0 % 1026,2 hPa 0,0 l/m 0,0 km/h (0 Bft) 0 min 0,0 km/h (0 Bft)
27.09.2009 05:26 18,8 C 7,6 C 0,0 UV-I 0,0 C 53 % 91 % 0 % 1026,2 hPa 0,0 l/m 0,0 km/h (0 Bft) 0 min 0,0 km/h (0 Bft)
27.09.2009 05:28 18,8 C 7,7 C 0,0 UV-I 0,0 C 53 % 91 % 0 % 1026,2 hPa 0,0 l/m 0,0 km/h (0 Bft) 0 min 0,0 km/h (0 Bft)
27.09.2009 05:30 18,8 C 7,6 C 0,0 UV-I 0,0 C 53 % 91 % 0 % 1026,2 hPa 0,0 l/m 0,0 km/h (0 Bft) 0 min 0,0 km/h (0 Bft)
27.09.2009 05:32 18,8 C 7,6 C 0,0 UV-I 0,0 C 53 % 91 % 0 % 1026,2 hPa 0,0 l/m 0,0 km/h (0 Bft) 0 min 0,0 km/h (0 Bft)
27.09.2009 05:34 18,8 C 7,6 C 0,0 UV-I 0,0 C 53 % 91 % 0 % 1026,2 hPa 0,0 l/m 0,0 km/h (0 Bft) 0 min 0,0 km/h (0 Bft)
27.09.2009 05:36 18,8 C 7,6 C 0,0 UV-I 0,0 C 53 % 91 % 0 % 1026,1 hPa 0,0 l/m 0,0 km/h (0 Bft) 0 min 0,0 km/h (0 Bft)
27.09.2009 05:38 18,8 C 7,6 C 0,0 UV-I 0,0 C 53 % 91 % 0 % 1026,1 hPa 0,0 l/m 0,0 km/h (0 Bft) 0 min 0,0 km/h (0 Bft)
27.09.2009 05:40 18,8 C 7,5 C 0,0 UV-I 0,0 C 53 % 91 % 0 % 1026,1 hPa 0,0 l/m 0,0 km/h (0 Bft) 0 min 0,0 km/h (0 Bft)
27.09.2009 05:42 18,8 C 7,5 C 0,0 UV-I 0,0 C 53 % 91 % 0 % 1026,1 hPa 0,0 l/m 0,0 km/h (0 Bft) 0 min 0,0 km/h (0 Bft)
27.09.2009 05:44 18,8 C 7,5 C 0,0 UV-I 0,0 C 53 % 91 % 0 % 1026,1 hPa 0,0 l/m 0,0 km/h (0 Bft) 0 min 0,0 km/h (0 Bft)
27.09.2009 05:46 18,8 C 7,5 C 0,0 UV-I 0,0 C 53 % 91 % 0 % 1026,1 hPa 0,0 l/m 0,0 km/h (0 Bft) 0 min 0,0 km/h (0 Bft)
27.09.2009 05:48 18,8 C 7,4 C 0,0 UV-I 0,0 C 53 % 91 % 0 % 1026,1 hPa 0,0 l/m 0,0 km/h (0 Bft) 0 min 0,0 km/h (0 Bft)
27.09.2009 05:50 18,8 C 7,4 C 0,0 UV-I 0,0 C 53 % 91 % 0 % 1026,1 hPa 0,0 l/m 0,0 km/h (0 Bft) 0 min 0,0 km/h (0 Bft)
27.09.2009 05:52 18,8 C 7,5 C 0,0 UV-I 0,0 C 52 % 91 % 0 % 1026,1 hPa 0,0 l/m 0,0 km/h (0 Bft) 0 min 0,0 km/h (0 Bft)
27.09.2009 05:54 18,8 C 7,5 C 0,0 UV-I 0,0 C 53 % 91 % 0 % 1026,1 hPa 0,0 l/m 0,0 km/h (0 Bft) 0 min 0,0 km/h (0 Bft)
27.09.2009 05:56 18,7 C 7,4 C 0,0 UV-I 0,0 C 52 % 91 % 0 % 1026,5 hPa 0,0 l/m 0,0 km/h (0 Bft) 0 min 0,0 km/h (0 Bft)
27.09.2009 05:58 18,7 C 7,3 C 0,0 UV-I 0,0 C 52 % 91 % 0 % 1026,5 hPa 0,0 l/m 0,0 km/h (0 Bft) 0 min 0,0 km/h (0 Bft)
27.09.2009 06:00 18,7 C 7,3 C 0,0 UV-I 0,0 C 52 % 91 % 0 % 1026,5 hPa 0,0 l/m 0,0 km/h (0 Bft) 0 min 0,0 km/h (0 Bft)
27.09.2009 06:02 18,7 C 7,3 C 0,0 UV-I 0,0 C 52 % 91 % 0 % 1026,5 hPa 0,0 l/m 0,0 km/h (0 Bft) 0 min 0,0 km/h (0 Bft)
27.09.2009 06:04 18,7 C 7,3 C 0,0 UV-I 0,0 C 52 % 91 % 0 % 1026,5 hPa 0,0 l/m 0,0 km/h (0 Bft) 0 min 0,0 km/h (0 Bft)
27.09.2009 06:06 18,7 C 7,3 C 0,0 UV-I 0,0 C 52 % 91 % 0 % 1026,5 hPa 0,0 l/m 0,0 km/h (0 Bft) 0 min 0,0 km/h (0 Bft)
27.09.2009 06:10 18,6 C 7,2 C 0,0 UV-I 0,0 C 52 % 91 % 0 % 1026,5 hPa 0,0 l/m 0,0 km/h (0 Bft) 0 min 0,0 km/h (0 Bft)
27.09.2009 06:12 18,6 C 7,2 C 0,0 UV-I 0,0 C 52 % 91 % 0 % 1026,5 hPa 0,0 l/m 0,0 km/h (0 Bft) 0 min 0,0 km/h (0 Bft)
27.09.2009 06:14 18,6 C 7,2 C 0,0 UV-I 0,0 C 52 % 91 % 0 % 1026,5 hPa 0,0 l/m 0,0 km/h (0 Bft) 0 min 0,0 km/h (0 Bft)
27.09.2009 06:16 18,6 C 7,2 C 0,0 UV-I 0,0 C 52 % 91 % 0 % 1025,9 hPa 0,0 l/m 0,0 km/h (0 Bft) 0 min 0,0 km/h (0 Bft)
27.09.2009 06:18 18,6 C 7,2 C 0,0 UV-I 0,0 C 52 % 91 % 0 % 1025,9 hPa 0,0 l/m 0,0 km/h (0 Bft) 0 min 0,0 km/h (0 Bft)
27.09.2009 06:20 18,6 C 7,2 C 0,0 UV-I 0,0 C 52 % 91 % 0 % 1025,9 hPa 0,0 l/m 0,0 km/h (0 Bft) 0 min 0,0 km/h (0 Bft)
27.09.2009 06:22 18,6 C 7,2 C 0,0 UV-I 0,0 C 52 % 91 % 0 % 1025,9 hPa 0,0 l/m 0,0 km/h (0 Bft) 0 min 0,0 km/h (0 Bft)
27.09.2009 06:24 18,6 C 7,3 C 0,0 UV-I 0,0 C 52 % 91 % 0 % 1025,9 hPa 0,0 l/m 0,0 km/h (0 Bft) 0 min 0,0 km/h (0 Bft)
27.09.2009 06:26 18,6 C 7,2 C 0,0 UV-I 0,0 C 52 % 91 % 0 % 1025,9 hPa 0,0 l/m 0,0 km/h (0 Bft) 0 min 0,0 km/h (0 Bft)
27.09.2009 06:28 18,6 C 7,2 C 0,0 UV-I 0,0 C 52 % 91 % 0 % 1025,9 hPa 0,0 l/m 0,0 km/h (0 Bft) 0 min 0,0 km/h (0 Bft)
27.09.2009 06:30 18,6 C 7,2 C 0,0 UV-I 0,0 C 52 % 91 % 0 % 1025,9 hPa 0,0 l/m 0,0 km/h (0 Bft) 0 min 0,0 km/h (0 Bft)
27.09.2009 06:32 18,5 C 7,1 C 0,0 UV-I 0,0 C 52 % 91 % 0 % 1025,9 hPa 0,0 l/m 0,0 km/h (0 Bft) 0 min 0,0 km/h (0 Bft)
27.09.2009 06:34 18,5 C 7,1 C 0,0 UV-I 0,0 C 53 % 91 % 0 % 1025,9 hPa 0,0 l/m 0,0 km/h (0 Bft) 0 min 0,0 km/h (0 Bft)
27.09.2009 06:36 18,5 C 7,1 C 0,0 UV-I 0,0 C 53 % 91 % 0 % 1026,4 hPa 0,0 l/m 0,0 km/h (0 Bft) 0 min 0,0 km/h (0 Bft)
27.09.2009 06:38 18,5 C 7,1 C 0,0 UV-I 0,0 C 53 % 91 % 0 % 1026,4 hPa 0,0 l/m 0,0 km/h (0 Bft) 0 min 0,0 km/h (0 Bft)
27.09.2009 06:40 18,5 C 7,1 C 0,0 UV-I 0,0 C 53 % 91 % 0 % 1026,4 hPa 0,0 l/m 0,0 km/h (0 Bft) 0 min 0,0 km/h (0 Bft)
27.09.2009 06:42 18,6 C 7,1 C 0,0 UV-I 0,0 C 53 % 91 % 0 % 1026,4 hPa 0,0 l/m 0,0 km/h (0 Bft) 0 min 0,0 km/h (0 Bft)
27.09.2009 06:44 18,5 C 7,1 C 0,0 UV-I 0,0 C 53 % 91 % 0 % 1026,4 hPa 0,0 l/m 0,0 km/h (0 Bft) 0 min 0,0 km/h (0 Bft)
27.09.2009 06:46 18,5 C 7,1 C 0,0 UV-I 0,0 C 53 % 91 % 0 % 1026,4 hPa 0,0 l/m 0,0 km/h (0 Bft) 0 min 0,0 km/h (0 Bft)
27.09.2009 06:48 18,6 C 7,0 C 0,0 UV-I 0,0 C 53 % 91 % 0 % 1026,4 hPa 0,0 l/m 0,0 km/h (0 Bft) 0 min 0,0 km/h (0 Bft)
27.09.2009 06:50 18,5 C 7,1 C 0,0 UV-I 0,0 C 53 % 91 % 0 % 1026,4 hPa 0,0 l/m 0,0 km/h (0 Bft) 0 min 0,0 km/h (0 Bft)
27.09.2009 06:52 18,5 C 7,1 C 0,0 UV-I 0,0 C 53 % 91 % 0 % 1026,4 hPa 0,0 l/m 0,0 km/h (0 Bft) 0 min 0,0 km/h (0 Bft)
27.09.2009 06:54 18,5 C 7,1 C 0,0 UV-I 0,0 C 53 % 91 % 0 % 1026,4 hPa 0,0 l/m 0,0 km/h (0 Bft) 0 min 0,0 km/h (0 Bft)
27.09.2009 06:56 18,5 C 6,9 C 0,0 UV-I 0,0 C 53 % 91 % 0 % 1026,2 hPa 0,0 l/m 0,0 km/h (0 Bft) 0 min 0,0 km/h (0 Bft)
27.09.2009 06:58 18,5 C 7,0 C 0,0 UV-I 0,0 C 53 % 91 % 0 % 1026,2 hPa 0,0 l/m 0,0 km/h (0 Bft) 0 min 0,0 km/h (0 Bft)
27.09.2009 07:00 18,5 C 6,9 C 0,0 UV-I 0,0 C 53 % 91 % 0 % 1026,2 hPa 0,0 l/m 0,0 km/h (0 Bft) 0 min 0,0 km/h (0 Bft)
27.09.2009 07:02 18,5 C 6,9 C 0,0 UV-I 0,0 C 53 % 91 % 0 % 1026,2 hPa 0,0 l/m 0,0 km/h (0 Bft) 0 min 0,0 km/h (0 Bft)
27.09.2009 07:04 18,5 C 6,9 C 0,0 UV-I 0,0 C 53 % 91 % 0 % 1026,2 hPa 0,0 l/m 0,0 km/h (0 Bft) 0 min 0,0 km/h (0 Bft)
27.09.2009 07:06 18,5 C 6,8 C 0,0 UV-I 0,0 C 52 % 91 % 0 % 1026,2 hPa 0,0 l/m 0,0 km/h (0 Bft) 0 min 0,0 km/h (0 Bft)
27.09.2009 07:08 18,5 C 6,9 C 0,0 UV-I 0,0 C 52 % 91 % 0 % 1026,2 hPa 0,0 l/m 0,0 km/h (0 Bft) 0 min 0,0 km/h (0 Bft)
27.09.2009 07:10 18,5 C 6,8 C 0,0 UV-I 0,0 C 52 % 91 % 0 % 1026,2 hPa 0,0 l/m 0,0 km/h (0 Bft) 0 min 0,0 km/h (0 Bft)
27.09.2009 07:12 18,5 C 6,8 C 0,0 UV-I 0,0 C 52 % 91 % 0 % 1026,2 hPa 0,0 l/m 0,0 km/h (0 Bft) 0 min 0,0 km/h (0 Bft)
27.09.2009 07:14 18,5 C 6,8 C 0,0 UV-I 0,0 C 52 % 91 % 0 % 1026,2 hPa 0,0 l/m 0,0 km/h (0 Bft) 0 min 0,0 km/h (0 Bft)
27.09.2009 07:16 18,4 C 6,9 C 0,0 UV-I 0,0 C 52 % 91 % 0 % 1026,1 hPa 0,0 l/m 0,0 km/h (0 Bft) 0 min 0,0 km/h (0 Bft)
27.09.2009 07:18 18,4 C 6,8 C 0,0 UV-I 0,0 C 52 % 91 % 0 % 1026,1 hPa 0,0 l/m 0,0 km/h (0 Bft) 0 min 0,0 km/h (0 Bft)
27.09.2009 07:20 18,4 C 6,8 C 0,0 UV-I 0,0 C 52 % 91 % 0 % 1026,1 hPa 0,0 l/m 0,0 km/h (0 Bft) 0 min 0,0 km/h (0 Bft)
27.09.2009 07:22 18,4 C 6,8 C 0,0 UV-I 0,0 C 52 % 91 % 0 % 1026,1 hPa 0,0 l/m 0,0 km/h (0 Bft) 0 min 0,0 km/h (0 Bft)
27.09.2009 07:24 18,4 C 6,8 C 0,0 UV-I 0,0 C 52 % 91 % 0 % 1026,1 hPa 0,0 l/m 0,0 km/h (0 Bft) 0 min 0,0 km/h (0 Bft)
27.09.2009 07:26 18,4 C 6,7 C 0,0 UV-I 0,0 C 52 % 91 % 0 % 1026,1 hPa 0,0 l/m 0,0 km/h (0 Bft) 0 min 0,0 km/h (0 Bft)
27.09.2009 07:28 18,4 C 6,7 C 0,0 UV-I 0,0 C 52 % 91 % 0 % 1026,1 hPa 0,0 l/m 0,0 km/h (0 Bft) 0 min 0,0 km/h (0 Bft)
27.09.2009 07:30 18,4 C 6,7 C 0,0 UV-I 0,0 C 52 % 91 % 0 % 1026,1 hPa 0,0 l/m 0,0 km/h (0 Bft) 0 min 0,0 km/h (0 Bft)
27.09.2009 07:32 18,4 C 6,7 C 0,0 UV-I 0,0 C 52 % 91 % 0 % 1026,1 hPa 0,0 l/m 0,0 km/h (0 Bft) 0 min 0,0 km/h (0 Bft)
27.09.2009 07:34 18,4 C 6,7 C 0,0 UV-I 0,0 C 52 % 91 % 0 % 1026,1 hPa 0,0 l/m 0,0 km/h (0 Bft) 0 min 0,0 km/h (0 Bft)
27.09.2009 07:36 18,4 C 6,6 C 0,0 UV-I 0,0 C 52 % 91 % 0 % 1026,1 hPa 0,0 l/m 0,0 km/h (0 Bft) 0 min 0,0 km/h (0 Bft)
27.09.2009 07:38 18,4 C 6,7 C 0,0 UV-I 0,0 C 52 % 91 % 0 % 1026,1 hPa 0,0 l/m 0,0 km/h (0 Bft) 0 min 0,0 km/h (0 Bft)
27.09.2009 07:40 18,4 C 6,7 C 0,0 UV-I 0,0 C 52 % 91 % 0 % 1026,1 hPa 0,0 l/m 0,0 km/h (0 Bft) 0 min 0,0 km/h (0 Bft)
27.09.2009 07:42 18,4 C 6,7 C 0,0 UV-I 0,0 C 52 % 92 % 0 % 1026,1 hPa 0,0 l/m 0,0 km/h (0 Bft) 0 min 0,0 km/h (0 Bft)
27.09.2009 07:44 18,4 C 6,6 C 0,0 UV-I 0,0 C 52 % 92 % 0 % 1026,1 hPa 0,0 l/m 0,0 km/h (0 Bft) 0 min 0,0 km/h (0 Bft)
27.09.2009 07:46 18,4 C 6,7 C 0,0 UV-I 0,0 C 53 % 92 % 0 % 1026,1 hPa 0,0 l/m 0,0 km/h (0 Bft) 0 min 0,0 km/h (0 Bft)
27.09.2009 07:48 18,4 C 6,7 C 0,0 UV-I 0,0 C 53 % 92 % 0 % 1026,1 hPa 0,0 l/m 0,0 km/h (0 Bft) 0 min 0,0 km/h (0 Bft)
27.09.2009 07:50 18,4 C 6,6 C 0,0 UV-I 0,0 C 53 % 92 % 0 % 1026,1 hPa 0,0 l/m 0,0 km/h (0 Bft) 0 min 0,0 km/h (0 Bft)
27.09.2009 07:52 18,4 C 6,6 C 0,0 UV-I 0,0 C 53 % 92 % 0 % 1026,1 hPa 0,0 l/m 0,0 km/h (0 Bft) 0 min 0,0 km/h (0 Bft)
27.09.2009 07:54 18,4 C 6,5 C 0,0 UV-I 0,0 C 53 % 92 % 0 % 1026,1 hPa 0,0 l/m 0,0 km/h (0 Bft) 0 min 0,0 km/h (0 Bft)
27.09.2009 07:56 18,4 C 6,5 C 0,0 UV-I 0,0 C 53 % 92 % 0 % 1026,1 hPa 0,0 l/m 0,0 km/h (0 Bft) 0 min 0,0 km/h (0 Bft)
27.09.2009 07:58 18,4 C 6,5 C 0,0 UV-I 0,0 C 53 % 92 % 0 % 1026,1 hPa 0,0 l/m 0,0 km/h (0 Bft) 0 min 0,0 km/h (0 Bft)
27.09.2009 08:00 18,4 C 6,5 C 0,0 UV-I 0,0 C 53 % 92 % 0 % 1026,1 hPa 0,0 l/m 0,0 km/h (0 Bft) 0 min 0,0 km/h (0 Bft)
27.09.2009 08:04 18,4 C 6,5 C 0,0 UV-I 0,0 C 53 % 92 % 0 % 1026,1 hPa 0,0 l/m 0,0 km/h (0 Bft) 0 min 0,0 km/h (0 Bft)
27.09.2009 08:06 18,4 C 6,5 C 0,0 UV-I 0,0 C 53 % 92 % 0 % 1026,1 hPa 0,0 l/m 0,0 km/h (0 Bft) 0 min 0,0 km/h (0 Bft)
27.09.2009 08:08 18,4 C 6,5 C 0,0 UV-I 0,0 C 53 % 92 % 0 % 1026,1 hPa 0,0 l/m 0,0 km/h (0 Bft) 0 min 0,0 km/h (0 Bft)
27.09.2009 08:12 18,4 C 6,5 C 0,0 UV-I 0,0 C 53 % 92 % 0 % 1026,1 hPa 0,0 l/m 0,0 km/h (0 Bft) 0 min 0,0 km/h (0 Bft)
27.09.2009 08:14 18,4 C 6,5 C 0,0 UV-I 0,0 C 53 % 92 % 0 % 1026,1 hPa 0,0 l/m 0,0 km/h (0 Bft) 0 min 0,0 km/h (0 Bft)
27.09.2009 08:16 18,4 C 6,5 C 0,0 UV-I 0,0 C 53 % 92 % 0 % 1026,2 hPa 0,0 l/m 0,0 km/h (0 Bft) 0 min 0,0 km/h (0 Bft)
27.09.2009 08:18 18,4 C 6,7 C 0,0 UV-I 0,0 C 53 % 92 % 0 % 1026,2 hPa 0,0 l/m 0,0 km/h (0 Bft) 0 min 0,0 km/h (0 Bft)
27.09.2009 08:20 18,4 C 6,7 C 0,0 UV-I 0,0 C 53 % 92 % 0 % 1026,2 hPa 0,0 l/m 0,0 km/h (0 Bft) 0 min 0,0 km/h (0 Bft)
27.09.2009 08:22 18,4 C 6,7 C 0,0 UV-I 0,0 C 53 % 92 % 0 % 1026,2 hPa 0,0 l/m 0,0 km/h (0 Bft) 0 min 0,0 km/h (0 Bft)
27.09.2009 08:24 18,4 C 6,6 C 0,0 UV-I 0,0 C 54 % 92 % 0 % 1026,2 hPa 0,0 l/m 0,0 km/h (0 Bft) 0 min 0,0 km/h (0 Bft)
27.09.2009 08:26 18,4 C 6,6 C 0,0 UV-I 0,1 C 54 % 92 % 3 % 1026,2 hPa 0,0 l/m 0,0 km/h (0 Bft) 0 min 0,0 km/h (0 Bft)
27.09.2009 08:28 18,4 C 6,7 C 0,1 UV-I 0,0 C 54 % 92 % 0 % 1026,2 hPa 0,0 l/m 0,0 km/h (0 Bft) 0 min 0,0 km/h (0 Bft)
27.09.2009 08:30 18,4 C 6,7 C 0,1 UV-I 0,1 C 54 % 92 % 3 % 1026,2 hPa 0,0 l/m 0,0 km/h (0 Bft) 0 min 0,0 km/h (0 Bft)
27.09.2009 08:32 18,4 C 6,8 C 0,1 UV-I 0,1 C 54 % 92 % 3 % 1026,2 hPa 0,0 l/m 0,0 km/h (0 Bft) 0 min 0,0 km/h (0 Bft)
27.09.2009 08:34 18,4 C 6,8 C 0,1 UV-I 0,1 C 54 % 92 % 3 % 1026,2 hPa 0,0 l/m 0,0 km/h (0 Bft) 0 min 0,0 km/h (0 Bft)
27.09.2009 08:36 18,4 C 6,8 C 0,1 UV-I 0,3 C 54 % 93 % 9 % 1026,6 hPa 0,0 l/m 0,0 km/h (0 Bft) 0 min 0,0 km/h (0 Bft)
27.09.2009 08:38 18,4 C 6,8 C 0,1 UV-I 0,3 C 54 % 93 % 9 % 1026,6 hPa 0,0 l/m 0,0 km/h (0 Bft) 0 min 0,0 km/h (0 Bft)
27.09.2009 08:40 18,4 C 6,9 C 0,1 UV-I 0,3 C 54 % 93 % 9 % 1026,6 hPa 0,0 l/m 0,0 km/h (0 Bft) 0 min 0,0 km/h (0 Bft)
27.09.2009 08:42 18,4 C 7,0 C 0,1 UV-I 0,3 C 54 % 93 % 9 % 1026,6 hPa 0,0 l/m 0,0 km/h (0 Bft) 0 min 0,0 km/h (0 Bft)
27.09.2009 08:44 18,4 C 7,0 C 0,4 UV-I 0,4 C 54 % 93 % 11 % 1026,6 hPa 0,0 l/m 0,0 km/h (0 Bft) 0 min 0,0 km/h (0 Bft)
27.09.2009 08:46 18,4 C 7,1 C 0,4 UV-I 0,4 C 54 % 93 % 11 % 1026,6 hPa 0,0 l/m 0,0 km/h (0 Bft) 0 min 0,0 km/h (0 Bft)
27.09.2009 08:48 18,4 C 7,1 C 0,4 UV-I 0,6 C 54 % 93 % 17 % 1026,6 hPa 0,0 l/m 0,0 km/h (0 Bft) 0 min 2,4 km/h (1 Bft)
27.09.2009 08:50 18,4 C 7,1 C 0,4 UV-I 0,6 C 54 % 93 % 17 % 1026,6 hPa 0,0 l/m 0,0 km/h (0 Bft) 0 min 0,0 km/h (0 Bft)
27.09.2009 08:52 18,4 C 7,2 C 0,4 UV-I 0,7 C 54 % 93 % 20 % 1026,6 hPa 0,0 l/m 0,0 km/h (0 Bft) 0 min 0,0 km/h (0 Bft)
27.09.2009 08:54 18,2 C 7,2 C 0,2 UV-I 0,7 C 54 % 93 % 20 % 1026,6 hPa 0,0 l/m 0,0 km/h (0 Bft) 0 min 0,0 km/h (0 Bft)
27.09.2009 08:56 18,4 C 7,2 C 0,2 UV-I 0,8 C 54 % 93 % 23 % 1026,4 hPa 0,0 l/m 0,0 km/h (0 Bft) 0 min 0,0 km/h (0 Bft)
27.09.2009 08:58 18,2 C 7,3 C 0,4 UV-I 0,8 C 55 % 93 % 23 % 1026,4 hPa 0,0 l/m 0,0 km/h (0 Bft) 0 min 0,0 km/h (0 Bft)
27.09.2009 09:00 18,2 C 7,5 C 0,4 UV-I 0,7 C 55 % 93 % 20 % 1026,4 hPa 0,0 l/m 0,0 km/h (0 Bft) 0 min 0,0 km/h (0 Bft)
27.09.2009 09:02 18,4 C 7,5 C 0,4 UV-I 0,7 C 55 % 93 % 20 % 1026,4 hPa 0,0 l/m 0,0 km/h (0 Bft) 0 min 0,0 km/h (0 Bft)
27.09.2009 09:04 18,2 C 7,5 C 0,5 UV-I 0,8 C 55 % 94 % 23 % 1026,4 hPa 0,0 l/m 0,0 km/h (0 Bft) 0 min 0,0 km/h (0 Bft)
27.09.2009 09:08 18,2 C 7,6 C 0,4 UV-I 0,9 C 55 % 94 % 26 % 1026,4 hPa 0,0 l/m 0,0 km/h (0 Bft) 0 min 0,0 km/h (0 Bft)
27.09.2009 09:10 18,2 C 7,6 C 0,4 UV-I 0,9 C 55 % 94 % 26 % 1026,4 hPa 0,0 l/m 0,0 km/h (0 Bft) 0 min 0,0 km/h (0 Bft)
27.09.2009 09:12 18,4 C 7,7 C 0,4 UV-I 0,9 C 56 % 94 % 26 % 1026,4 hPa 0,0 l/m 0,0 km/h (0 Bft) 0 min 0,0 km/h (0 Bft)
27.09.2009 09:14 18,4 C 7,8 C 0,5 UV-I 0,9 C 56 % 94 % 26 % 1026,4 hPa 0,0 l/m 0,0 km/h (0 Bft) 0 min 0,0 km/h (0 Bft)
27.09.2009 09:16 18,4 C 7,9 C 0,5 UV-I 0,9 C 56 % 94 % 26 % 1026,7 hPa 0,0 l/m 0,0 km/h (0 Bft) 0 min 0,0 km/h (0 Bft)
27.09.2009 09:18 18,4 C 7,9 C 0,5 UV-I 0,9 C 56 % 94 % 26 % 1026,7 hPa 0,0 l/m 0,0 km/h (0 Bft) 0 min 0,0 km/h (0 Bft)
27.09.2009 09:20 18,4 C 8,0 C 0,5 UV-I 1,0 C 56 % 94 % 29 % 1026,7 hPa 0,0 l/m 0,0 km/h (0 Bft) 0 min 0,0 km/h (0 Bft)
27.09.2009 09:22 18,4 C 8,0 C 0,5 UV-I 1,0 C 56 % 94 % 29 % 1026,7 hPa 0,0 l/m 0,0 km/h (0 Bft) 0 min 0,0 km/h (0 Bft)
27.09.2009 09:26 18,4 C 8,1 C 0,6 UV-I 1,1 C 56 % 94 % 31 % 1026,7 hPa 0,0 l/m 0,0 km/h (0 Bft) 0 min 0,0 km/h (0 Bft)
27.09.2009 09:28 18,4 C 8,2 C 0,7 UV-I 1,1 C 56 % 94 % 31 % 1026,7 hPa 0,0 l/m 0,0 km/h (0 Bft) 0 min 0,0 km/h (0 Bft)
27.09.2009 09:30 18,4 C 8,3 C 0,7 UV-I 1,1 C 56 % 94 % 31 % 1026,7 hPa 0,0 l/m 0,0 km/h (0 Bft) 0 min 0,0 km/h (0 Bft)
27.09.2009 09:32 18,4 C 8,3 C 0,7 UV-I 1,2 C 56 % 94 % 34 % 1026,7 hPa 0,0 l/m 0,0 km/h (0 Bft) 0 min 0,0 km/h (0 Bft)
27.09.2009 09:34 18,4 C 8,3 C 0,8 UV-I 1,3 C 56 % 94 % 37 % 1026,7 hPa 0,0 l/m 0,0 km/h (0 Bft) 0 min 0,0 km/h (0 Bft)
27.09.2009 09:36 18,4 C 8,4 C 0,8 UV-I 1,3 C 56 % 94 % 37 % 1026,9 hPa 0,0 l/m 0,0 km/h (0 Bft) 0 min 0,0 km/h (0 Bft)
27.09.2009 09:38 18,5 C 8,5 C 0,8 UV-I 1,3 C 56 % 94 % 37 % 1026,9 hPa 0,0 l/m 0,0 km/h (0 Bft) 0 min 0,0 km/h (0 Bft)
27.09.2009 09:40 18,5 C 8,5 C 0,8 UV-I 1,4 C 56 % 94 % 40 % 1026,9 hPa 0,0 l/m 0,0 km/h (0 Bft) 0 min 0,0 km/h (0 Bft)
27.09.2009 09:42 18,5 C 8,7 C 0,8 UV-I 1,3 C 56 % 94 % 37 % 1026,9 hPa 0,0 l/m 0,0 km/h (0 Bft) 0 min 0,0 km/h (0 Bft)
27.09.2009 09:44 18,5 C 8,7 C 1,0 UV-I 1,5 C 56 % 94 % 43 % 1026,9 hPa 0,0 l/m 0,0 km/h (0 Bft) 0 min 0,0 km/h (0 Bft)
27.09.2009 09:48 18,5 C 8,9 C 1,2 UV-I 2,6 C 56 % 94 % 74 % 1026,9 hPa 0,0 l/m 0,0 km/h (0 Bft) 0 min 0,0 km/h (0 Bft)
27.09.2009 09:50 18,5 C 9,0 C 1,2 UV-I 3,8 C 56 % 94 % 100 % 1026,9 hPa 0,0 l/m 0,0 km/h (0 Bft) 2 min 0,0 km/h (0 Bft)
27.09.2009 09:52 18,6 C 9,1 C 1,2 UV-I 4,5 C 56 % 94 % 100 % 1026,9 hPa 0,0 l/m 0,0 km/h (0 Bft) 2 min 0,0 km/h (0 Bft)
27.09.2009 09:54 18,6 C 9,2 C 1,1 UV-I 5,5 C 56 % 94 % 100 % 1026,9 hPa 0,0 l/m 0,0 km/h (0 Bft) 2 min 0,0 km/h (0 Bft)
27.09.2009 09:56 18,6 C 9,2 C 1,1 UV-I 6,0 C 56 % 94 % 100 % 1027,2 hPa 0,0 l/m 0,0 km/h (0 Bft) 2 min 0,0 km/h (0 Bft)
27.09.2009 09:58 18,6 C 9,3 C 1,1 UV-I 6,3 C 56 % 94 % 100 % 1027,2 hPa 0,0 l/m 0,0 km/h (0 Bft) 2 min 0,0 km/h (0 Bft)
27.09.2009 10:00 18,6 C 9,4 C 1,1 UV-I 6,7 C 56 % 94 % 100 % 1027,2 hPa 0,0 l/m 0,0 km/h (0 Bft) 2 min 0,0 km/h (0 Bft)
27.09.2009 10:04 18,6 C 9,7 C 1,1 UV-I 7,3 C 56 % 95 % 100 % 1027,2 hPa 0,0 l/m 0,0 km/h (0 Bft) 2 min 0,0 km/h (0 Bft)
27.09.2009 10:06 18,6 C 9,9 C 1,1 UV-I 7,5 C 56 % 95 % 100 % 1027,2 hPa 0,0 l/m 0,0 km/h (0 Bft) 2 min 0,0 km/h (0 Bft)
27.09.2009 10:08 18,6 C 9,9 C 1,0 UV-I 7,9 C 56 % 95 % 100 % 1027,2 hPa 0,0 l/m 0,0 km/h (0 Bft) 2 min 0,0 km/h (0 Bft)
27.09.2009 10:10 18,6 C 10,0 C 1,0 UV-I 8,2 C 56 % 95 % 100 % 1027,2 hPa 0,0 l/m 0,0 km/h (0 Bft) 2 min 0,0 km/h (0 Bft)
27.09.2009 10:14 18,7 C 10,3 C 1,1 UV-I 8,7 C 56 % 95 % 100 % 1027,2 hPa 0,0 l/m 0,0 km/h (0 Bft) 2 min 0,0 km/h (0 Bft)
27.09.2009 10:18 18,7 C 10,4 C 1,5 UV-I 9,2 C 56 % 95 % 100 % 1027,2 hPa 0,0 l/m 0,0 km/h (0 Bft) 2 min 0,0 km/h (0 Bft)
27.09.2009 10:20 18,7 C 10,5 C 1,5 UV-I 9,3 C 56 % 95 % 100 % 1027,2 hPa 0,0 l/m 0,0 km/h (0 Bft) 2 min 0,0 km/h (0 Bft)
27.09.2009 10:22 18,7 C 10,7 C 1,5 UV-I 9,3 C 56 % 95 % 100 % 1027,2 hPa 0,0 l/m 0,0 km/h (0 Bft) 2 min 0,0 km/h (0 Bft)
27.09.2009 10:24 18,8 C 10,8 C 1,7 UV-I 9,4 C 56 % 95 % 100 % 1027,2 hPa 0,0 l/m 0,0 km/h (0 Bft) 2 min 0,0 km/h (0 Bft)
27.09.2009 10:26 18,8 C 10,9 C 1,7 UV-I 9,5 C 56 % 94 % 100 % 1027,2 hPa 0,0 l/m 0,0 km/h (0 Bft) 2 min 0,0 km/h (0 Bft)
27.09.2009 10:28 18,8 C 11,0 C 1,7 UV-I 9,5 C 56 % 94 % 100 % 1027,2 hPa 0,0 l/m 0,0 km/h (0 Bft) 2 min 3,1 km/h (1 Bft)
27.09.2009 10:32 18,8 C 11,4 C 1,7 UV-I 9,0 C 56 % 94 % 100 % 1027,2 hPa 0,0 l/m 0,2 km/h (0 Bft) 2 min 3,4 km/h (1 Bft)
27.09.2009 10:38 18,8 C 11,7 C 3,0 UV-I 9,6 C 56 % 94 % 100 % 1027,4 hPa 0,0 l/m 0,2 km/h (0 Bft) 2 min 0,0 km/h (0 Bft)
27.09.2009 10:40 18,8 C 11,9 C 3,0 UV-I 9,5 C 56 % 93 % 100 % 1027,4 hPa 0,0 l/m 0,2 km/h (0 Bft) 2 min 0,0 km/h (0 Bft)
27.09.2009 10:42 18,8 C 12,0 C 3,0 UV-I 9,6 C 56 % 93 % 100 % 1027,4 hPa 0,0 l/m 0,0 km/h (0 Bft) 2 min 0,0 km/h (0 Bft)
27.09.2009 10:44 18,8 C 12,2 C 3,3 UV-I 9,4 C 56 % 93 % 100 % 1027,4 hPa 0,0 l/m 0,0 km/h (0 Bft) 2 min 0,0 km/h (0 Bft)
27.09.2009 10:46 18,8 C 12,4 C 3,3 UV-I 9,2 C 56 % 93 % 100 % 1027,4 hPa 0,0 l/m 0,0 km/h (0 Bft) 2 min 0,0 km/h (0 Bft)
27.09.2009 10:48 18,8 C 12,5 C 4,1 UV-I 9,4 C 56 % 93 % 100 % 1027,4 hPa 0,0 l/m 0,0 km/h (0 Bft) 2 min 0,0 km/h (0 Bft)
27.09.2009 10:50 18,9 C 12,7 C 4,1 UV-I 9,5 C 57 % 93 % 100 % 1027,4 hPa 0,0 l/m 0,0 km/h (0 Bft) 2 min 0,0 km/h (0 Bft)
27.09.2009 10:52 18,9 C 12,7 C 4,1 UV-I 9,5 C 57 % 92 % 100 % 1027,4 hPa 0,0 l/m 0,0 km/h (0 Bft) 2 min 0,0 km/h (0 Bft)
27.09.2009 10:56 18,9 C 13,1 C 3,6 UV-I 9,6 C 57 % 91 % 100 % 1027,4 hPa 0,0 l/m 0,0 km/h (0 Bft) 2 min 0,0 km/h (0 Bft)
27.09.2009 11:00 18,9 C 13,3 C 4,3 UV-I 9,4 C 57 % 91 % 100 % 1027,4 hPa 0,0 l/m 0,2 km/h (0 Bft) 2 min 0,0 km/h (0 Bft)
27.09.2009 11:02 18,9 C 13,5 C 4,3 UV-I 9,1 C 57 % 91 % 100 % 1027,4 hPa 0,0 l/m 0,2 km/h (0 Bft) 2 min 0,0 km/h (0 Bft)
27.09.2009 11:08 19,0 C 13,9 C 5,3 UV-I 8,8 C 57 % 89 % 100 % 1027,4 hPa 0,0 l/m 0,7 km/h (0 Bft) 2 min 3,4 km/h (1 Bft)
27.09.2009 11:10 19,0 C 14,0 C 5,3 UV-I 8,8 C 57 % 89 % 100 % 1027,4 hPa 0,0 l/m 0,5 km/h (0 Bft) 2 min 3,8 km/h (1 Bft)
27.09.2009 11:12 19,0 C 14,3 C 5,3 UV-I 8,7 C 57 % 88 % 100 % 1027,4 hPa 0,0 l/m 0,5 km/h (0 Bft) 2 min 0,0 km/h (0 Bft)
27.09.2009 11:14 19,0 C 14,3 C 5,6 UV-I 8,7 C 57 % 87 % 100 % 1027,4 hPa 0,0 l/m 0,7 km/h (0 Bft) 2 min 4,8 km/h (1 Bft)
27.09.2009 11:16 19,0 C 14,4 C 5,6 UV-I 8,6 C 57 % 87 % 100 % 1027,4 hPa 0,0 l/m 0,7 km/h (0 Bft) 2 min 0,0 km/h (0 Bft)
27.09.2009 11:18 19,0 C 14,7 C 4,9 UV-I 8,3 C 57 % 87 % 100 % 1027,4 hPa 0,0 l/m 0,5 km/h (0 Bft) 2 min 0,0 km/h (0 Bft)
27.09.2009 11:20 19,0 C 14,7 C 4,9 UV-I 8,3 C 57 % 87 % 100 % 1027,4 hPa 0,0 l/m 0,5 km/h (0 Bft) 2 min 0,0 km/h (0 Bft)
27.09.2009 11:24 19,1 C 15,1 C 6,1 UV-I 8,1 C 57 % 86 % 100 % 1027,4 hPa 0,0 l/m 0,7 km/h (0 Bft) 2 min 4,8 km/h (1 Bft)
27.09.2009 11:26 19,1 C 15,3 C 6,1 UV-I 7,8 C 56 % 86 % 100 % 1027,4 hPa 0,0 l/m 0,7 km/h (0 Bft) 2 min 0,0 km/h (0 Bft)
27.09.2009 11:28 19,1 C 15,3 C 6,6 UV-I 7,9 C 57 % 85 % 100 % 1027,4 hPa 0,0 l/m 0,5 km/h (0 Bft) 2 min 0,0 km/h (0 Bft)
27.09.2009 11:30 19,1 C 15,4 C 6,6 UV-I 8,1 C 57 % 84 % 100 % 1027,4 hPa 0,0 l/m 0,7 km/h (0 Bft) 2 min 3,8 km/h (1 Bft)
27.09.2009 11:32 19,1 C 15,6 C 6,6 UV-I 8,2 C 57 % 83 % 100 % 1027,4 hPa 0,0 l/m 1,2 km/h (1 Bft) 2 min 3,8 km/h (1 Bft)
27.09.2009 11:34 19,2 C 15,6 C 7,6 UV-I 8,3 C 57 % 82 % 100 % 1027,4 hPa 0,0 l/m 1,4 km/h (1 Bft) 2 min 5,5 km/h (1 Bft)
27.09.2009 11:36 19,2 C 15,7 C 7,6 UV-I 8,2 C 57 % 81 % 100 % 1027,8 hPa 0,0 l/m 1,4 km/h (1 Bft) 2 min 0,0 km/h (0 Bft)
27.09.2009 11:40 19,2 C 15,9 C 7,1 UV-I 8,6 C 57 % 81 % 100 % 1027,8 hPa 0,0 l/m 1,4 km/h (1 Bft) 2 min 6,3 km/h (2 Bft)
27.09.2009 11:42 19,2 C 16,0 C 7,1 UV-I 8,6 C 57 % 81 % 100 % 1027,8 hPa 0,0 l/m 1,2 km/h (1 Bft) 2 min 0,0 km/h (0 Bft)
27.09.2009 11:44 19,2 C 16,1 C 8,1 UV-I 8,9 C 57 % 81 % 100 % 1027,8 hPa 0,0 l/m 0,7 km/h (0 Bft) 2 min 3,6 km/h (1 Bft)
27.09.2009 11:46 19,2 C 16,3 C 8,1 UV-I 8,9 C 57 % 79 % 100 % 1027,8 hPa 0,0 l/m 0,2 km/h (0 Bft) 2 min 0,0 km/h (0 Bft)
27.09.2009 11:48 19,2 C 16,4 C 7,0 UV-I 8,9 C 57 % 79 % 100 % 1027,8 hPa 0,0 l/m 0,5 km/h (0 Bft) 2 min 0,0 km/h (0 Bft)
27.09.2009 11:50 19,2 C 16,5 C 7,0 UV-I 9,1 C 57 % 79 % 100 % 1027,8 hPa 0,0 l/m 0,5 km/h (0 Bft) 2 min 0,0 km/h (0 Bft)
27.09.2009 11:52 19,2 C 16,7 C 7,0 UV-I 9,1 C 57 % 77 % 100 % 1027,8 hPa 0,0 l/m 0,7 km/h (0 Bft) 2 min 4,1 km/h (1 Bft)
27.09.2009 11:54 19,2 C 16,7 C 6,3 UV-I 9,1 C 57 % 77 % 100 % 1027,8 hPa 0,0 l/m 1,0 km/h (0 Bft) 2 min 0,0 km/h (0 Bft)
27.09.2009 11:56 19,3 C 16,8 C 6,3 UV-I 9,4 C 57 % 78 % 100 % 1027,8 hPa 0,0 l/m 1,0 km/h (0 Bft) 2 min 0,0 km/h (0 Bft)
27.09.2009 11:58 19,2 C 17,0 C 6,2 UV-I 9,4 C 57 % 78 % 100 % 1027,8 hPa 0,0 l/m 0,7 km/h (0 Bft) 2 min 0,0 km/h (0 Bft)
27.09.2009 12:00 19,2 C 17,1 C 6,2 UV-I 9,3 C 57 % 77 % 100 % 1027,8 hPa 0,0 l/m 0,7 km/h (0 Bft) 2 min 0,0 km/h (0 Bft)
27.09.2009 12:02 19,2 C 17,2 C 6,2 UV-I 9,3 C 57 % 77 % 100 % 1027,8 hPa 0,0 l/m 0,5 km/h (0 Bft) 2 min 0,0 km/h (0 Bft)
27.09.2009 12:04 19,4 C 17,2 C 6,2 UV-I 9,3 C 57 % 77 % 100 % 1027,8 hPa 0,0 l/m 0,5 km/h (0 Bft) 2 min 0,0 km/h (0 Bft)
27.09.2009 12:06 19,4 C 17,5 C 6,2 UV-I 9,6 C 57 % 76 % 100 % 1027,8 hPa 0,0 l/m 0,0 km/h (0 Bft) 2 min 0,0 km/h (0 Bft)
27.09.2009 12:08 19,4 C 17,6 C 8,6 UV-I 9,8 C 57 % 76 % 100 % 1027,8 hPa 0,0 l/m 0,0 km/h (0 Bft) 2 min 0,0 km/h (0 Bft)
27.09.2009 12:10 19,4 C 17,9 C 8,6 UV-I 9,6 C 57 % 75 % 100 % 1027,8 hPa 0,0 l/m 0,0 km/h (0 Bft) 2 min 0,0 km/h (0 Bft)
27.09.2009 12:14 19,4 C 18,0 C 8,6 UV-I 9,9 C 57 % 74 % 100 % 1027,8 hPa 0,0 l/m 0,5 km/h (0 Bft) 2 min 4,1 km/h (1 Bft)
27.09.2009 12:16 19,5 C 18,0 C 8,6 UV-I 9,8 C 57 % 73 % 100 % 1027,9 hPa 0,0 l/m 1,0 km/h (0 Bft) 2 min 3,1 km/h (1 Bft)
27.09.2009 12:18 19,5 C 18,3 C 9,0 UV-I 9,3 C 57 % 73 % 100 % 1027,9 hPa 0,0 l/m 1,0 km/h (0 Bft) 2 min 3,4 km/h (1 Bft)
27.09.2009 12:20 19,5 C 18,2 C 9,0 UV-I 9,4 C 57 % 71 % 100 % 1027,9 hPa 0,0 l/m 1,7 km/h (1 Bft) 2 min 4,6 km/h (1 Bft)
27.09.2009 12:22 19,5 C 18,3 C 9,0 UV-I 9,0 C 57 % 71 % 100 % 1027,9 hPa 0,0 l/m 1,7 km/h (1 Bft) 2 min 0,0 km/h (0 Bft)
27.09.2009 12:26 19,6 C 18,5 C 9,3 UV-I 8,7 C 57 % 68 % 100 % 1027,9 hPa 0,0 l/m 1,7 km/h (1 Bft) 2 min 6,0 km/h (2 Bft)
27.09.2009 12:28 19,6 C 18,7 C 9,4 UV-I 8,5 C 56 % 69 % 100 % 1027,9 hPa 0,0 l/m 1,7 km/h (1 Bft) 2 min 4,8 km/h (1 Bft)
27.09.2009 12:32 19,6 C 18,7 C 9,4 UV-I 8,5 C 56 % 69 % 100 % 1027,9 hPa 0,0 l/m 1,4 km/h (1 Bft) 2 min 2,6 km/h (1 Bft)
27.09.2009 12:34 19,7 C 18,9 C 9,4 UV-I 8,4 C 56 % 69 % 100 % 1027,9 hPa 0,0 l/m 1,4 km/h (1 Bft) 2 min 0,0 km/h (0 Bft)
27.09.2009 12:36 19,7 C 19,1 C 9,4 UV-I 8,4 C 56 % 69 % 100 % 1027,4 hPa 0,0 l/m 1,0 km/h (0 Bft) 2 min 0,0 km/h (0 Bft)
27.09.2009 12:38 19,7 C 19,2 C 9,9 UV-I 8,6 C 56 % 68 % 100 % 1027,4 hPa 0,0 l/m 1,0 km/h (0 Bft) 2 min 2,4 km/h (1 Bft)
27.09.2009 12:40 19,8 C 19,2 C 9,9 UV-I 8,8 C 56 % 67 % 100 % 1027,4 hPa 0,0 l/m 1,0 km/h (0 Bft) 2 min 4,6 km/h (1 Bft)
27.09.2009 12:46 19,9 C 19,5 C 9,7 UV-I 8,5 C 56 % 66 % 100 % 1027,4 hPa 0,0 l/m 0,7 km/h (0 Bft) 2 min 0,0 km/h (0 Bft)
27.09.2009 12:50 19,9 C 19,7 C 9,5 UV-I 8,3 C 56 % 65 % 100 % 1027,4 hPa 0,0 l/m 1,0 km/h (0 Bft) 2 min 0,0 km/h (0 Bft)
27.09.2009 13:00 20,0 C 19,9 C 9,2 UV-I 8,0 C 56 % 64 % 100 % 1027,6 hPa 0,0 l/m 1,4 km/h (1 Bft) 2 min 4,8 km/h (1 Bft)
27.09.2009 13:02 20,1 C 20,0 C 9,2 UV-I 7,6 C 56 % 64 % 100 % 1027,6 hPa 0,0 l/m 1,4 km/h (1 Bft) 2 min 0,0 km/h (0 Bft)
27.09.2009 13:04 20,1 C 20,1 C 7,9 UV-I 7,5 C 56 % 64 % 100 % 1027,6 hPa 0,0 l/m 1,4 km/h (1 Bft) 2 min 0,0 km/h (0 Bft)
27.09.2009 13:08 20,2 C 20,3 C 7,9 UV-I 7,3 C 55 % 62 % 100 % 1027,6 hPa 0,0 l/m 1,9 km/h (1 Bft) 2 min 3,4 km/h (1 Bft)
27.09.2009 13:10 20,2 C 20,2 C 7,9 UV-I 7,4 C 55 % 62 % 100 % 1027,6 hPa 0,0 l/m 1,9 km/h (1 Bft) 2 min 2,9 km/h (1 Bft)
27.09.2009 13:12 20,2 C 20,2 C 7,9 UV-I 7,2 C 55 % 63 % 100 % 1027,6 hPa 0,0 l/m 1,7 km/h (1 Bft) 2 min 0,0 km/h (0 Bft)
27.09.2009 13:14 20,3 C 20,3 C 9,0 UV-I 7,1 C 55 % 61 % 100 % 1027,6 hPa 0,0 l/m 2,2 km/h (1 Bft) 2 min 4,8 km/h (1 Bft)
27.09.2009 13:16 20,3 C 20,4 C 9,0 UV-I 7,1 C 55 % 61 % 100 % 1027,7 hPa 0,0 l/m 1,7 km/h (1 Bft) 2 min 3,8 km/h (1 Bft)
27.09.2009 13:18 20,2 C 20,5 C 9,0 UV-I 7,1 C 55 % 61 % 100 % 1027,7 hPa 0,0 l/m 1,9 km/h (1 Bft) 2 min 3,1 km/h (1 Bft)
27.09.2009 13:22 20,4 C 20,5 C 9,0 UV-I 7,2 C 55 % 59 % 100 % 1027,7 hPa 0,0 l/m 2,4 km/h (1 Bft) 2 min 5,1 km/h (1 Bft)
27.09.2009 13:24 20,4 C 20,5 C 9,3 UV-I 7,1 C 55 % 59 % 100 % 1027,7 hPa 0,0 l/m 2,6 km/h (1 Bft) 2 min 5,1 km/h (1 Bft)
27.09.2009 13:26 20,5 C 20,7 C 9,3 UV-I 6,9 C 55 % 60 % 100 % 1027,7 hPa 0,0 l/m 2,4 km/h (1 Bft) 2 min 0,0 km/h (0 Bft)
27.09.2009 13:28 20,5 C 20,7 C 9,5 UV-I 7,1 C 55 % 59 % 100 % 1027,7 hPa 0,0 l/m 2,6 km/h (1 Bft) 2 min 2,6 km/h (1 Bft)
27.09.2009 13:30 20,5 C 20,7 C 9,5 UV-I 7,3 C 55 % 60 % 100 % 1027,7 hPa 0,0 l/m 2,2 km/h (1 Bft) 2 min 6,7 km/h (2 Bft)
27.09.2009 13:34 20,6 C 21,0 C 9,3 UV-I 7,6 C 55 % 59 % 100 % 1027,7 hPa 0,0 l/m 1,2 km/h (1 Bft) 2 min 2,4 km/h (1 Bft)
27.09.2009 13:36 20,6 C 21,0 C 9,3 UV-I 7,8 C 55 % 59 % 100 % 1027,7 hPa 0,0 l/m 1,0 km/h (0 Bft) 2 min 2,9 km/h (1 Bft)
27.09.2009 13:38 20,7 C 21,1 C 9,1 UV-I 7,9 C 55 % 59 % 100 % 1027,7 hPa 0,0 l/m 0,7 km/h (0 Bft) 2 min 6,7 km/h (2 Bft)
27.09.2009 13:44 20,9 C 21,2 C 9,2 UV-I 7,3 C 54 % 56 % 100 % 1027,7 hPa 0,0 l/m 2,4 km/h (1 Bft) 2 min 5,1 km/h (1 Bft)
27.09.2009 13:46 20,9 C 21,1 C 9,2 UV-I 7,2 C 54 % 57 % 100 % 1027,7 hPa 0,0 l/m 2,4 km/h (1 Bft) 2 min 2,6 km/h (1 Bft)
27.09.2009 13:48 20,9 C 21,1 C 9,0 UV-I 7,2 C 54 % 57 % 100 % 1027,7 hPa 0,0 l/m 2,9 km/h (1 Bft) 2 min 2,4 km/h (1 Bft)
27.09.2009 13:50 21,0 C 21,3 C 9,0 UV-I 7,0 C 54 % 57 % 100 % 1027,7 hPa 0,0 l/m 2,4 km/h (1 Bft) 2 min 0,0 km/h (0 Bft)
27.09.2009 13:54 21,1 C 21,3 C 9,1 UV-I 7,0 C 54 % 56 % 100 % 1027,7 hPa 0,0 l/m 1,9 km/h (1 Bft) 2 min 8,7 km/h (2 Bft)
27.09.2009 13:56 21,2 C 21,5 C 9,1 UV-I 6,8 C 54 % 57 % 100 % 1027,9 hPa 0,0 l/m 1,7 km/h (1 Bft) 2 min 0,0 km/h (0 Bft)
27.09.2009 13:58 21,2 C 21,5 C 8,9 UV-I 7,0 C 54 % 57 % 100 % 1027,9 hPa 0,0 l/m 1,4 km/h (1 Bft) 2 min 2,4 km/h (1 Bft)
27.09.2009 14:00 21,2 C 21,6 C 8,9 UV-I 7,0 C 54 % 56 % 100 % 1027,9 hPa 0,0 l/m 1,2 km/h (1 Bft) 2 min 3,1 km/h (1 Bft)
27.09.2009 14:06 21,4 C 21,7 C 8,8 UV-I 6,8 C 53 % 54 % 100 % 1027,9 hPa 0,0 l/m 2,6 km/h (1 Bft) 2 min 6,7 km/h (2 Bft)
27.09.2009 14:08 21,5 C 21,7 C 8,6 UV-I 6,6 C 53 % 54 % 100 % 1027,9 hPa 0,0 l/m 3,1 km/h (1 Bft) 2 min 3,8 km/h (1 Bft)
27.09.2009 14:10 21,6 C 21,7 C 8,6 UV-I 6,4 C 53 % 55 % 100 % 1027,9 hPa 0,0 l/m 3,4 km/h (1 Bft) 2 min 3,8 km/h (1 Bft)
27.09.2009 14:12 21,6 C 21,8 C 8,6 UV-I 6,1 C 53 % 56 % 100 % 1027,9 hPa 0,0 l/m 3,4 km/h (1 Bft) 2 min 0,0 km/h (0 Bft)
27.09.2009 14:16 21,7 C 22,3 C 8,7 UV-I 5,7 C 53 % 55 % 100 % 1029,4 hPa 0,0 l/m 1,9 km/h (1 Bft) 2 min 2,4 km/h (1 Bft)
27.09.2009 14:22 21,9 C 22,4 C 8,4 UV-I 6,2 C 52 % 53 % 100 % 1029,4 hPa 0,0 l/m 1,2 km/h (1 Bft) 2 min 3,6 km/h (1 Bft)
27.09.2009 14:23 22,0 C 22,4 C 8,4 UV-I 6,3 C 52 % 54 % 100 % 1029,4 hPa 0,0 l/m 1,2 km/h (1 Bft) 1 min 0,0 km/h (0 Bft)
27.09.2009 14:27 22,0 C 22,5 C 6,5 UV-I 6,5 C 52 % 53 % 100 % 1029,4 hPa 0,0 l/m 1,2 km/h (1 Bft) 2 min 3,4 km/h (1 Bft)
27.09.2009 14:28 22,0 C 22,5 C 6,5 UV-I 6,5 C 52 % 53 % 100 % 1029,4 hPa 0,0 l/m 1,2 km/h (1 Bft) 1 min 3,4 km/h (1 Bft)
27.09.2009 14:30 22,1 C 22,7 C 6,5 UV-I 6,3 C 52 % 53 % 100 % 1029,4 hPa 0,0 l/m 1,0 km/h (0 Bft) 2 min 2,4 km/h (1 Bft)
27.09.2009 14:32 22,2 C 22,7 C 6,5 UV-I 6,3 C 52 % 52 % 100 % 1029,4 hPa 0,0 l/m 1,0 km/h (0 Bft) 2 min 4,3 km/h (1 Bft)
27.09.2009 14:34 22,2 C 22,7 C 7,0 UV-I 6,3 C 51 % 52 % 100 % 1029,4 hPa 0,0 l/m 1,2 km/h (1 Bft) 2 min 3,4 km/h (1 Bft)
27.09.2009 14:36 22,2 C 22,7 C 7,0 UV-I 6,2 C 51 % 52 % 100 % 1031,4 hPa 0,0 l/m 1,7 km/h (1 Bft) 2 min 4,8 km/h (1 Bft)
27.09.2009 14:38 22,3 C 22,7 C 3,7 UV-I 6,1 C 51 % 51 % 100 % 1031,4 hPa 0,0 l/m 2,4 km/h (1 Bft) 2 min 5,1 km/h (1 Bft)
27.09.2009 14:40 22,2 C 22,5 C 3,7 UV-I 5,9 C 51 % 52 % 100 % 1031,4 hPa 0,0 l/m 2,6 km/h (1 Bft) 2 min 2,4 km/h (1 Bft)
27.09.2009 14:42 22,4 C 22,5 C 3,7 UV-I 5,9 C 51 % 51 % 100 % 1031,4 hPa 0,0 l/m 2,9 km/h (1 Bft) 2 min 3,8 km/h (1 Bft)
27.09.2009 14:44 22,4 C 22,5 C 5,5 UV-I 6,0 C 51 % 52 % 100 % 1031,4 hPa 0,0 l/m 2,6 km/h (1 Bft) 2 min 0,0 km/h (0 Bft)
27.09.2009 14:46 22,4 C 22,6 C 5,5 UV-I 6,2 C 51 % 52 % 100 % 1031,4 hPa 0,0 l/m 1,9 km/h (1 Bft) 2 min 0,0 km/h (0 Bft)
27.09.2009 14:48 22,5 C 22,7 C 6,6 UV-I 6,3 C 50 % 53 % 100 % 1031,4 hPa 0,0 l/m 1,7 km/h (1 Bft) 2 min 3,4 km/h (1 Bft)
27.09.2009 14:50 22,5 C 22,8 C 6,6 UV-I 6,2 C 50 % 51 % 100 % 1031,4 hPa 0,0 l/m 1,9 km/h (1 Bft) 2 min 9,6 km/h (2 Bft)
27.09.2009 14:52 22,6 C 22,7 C 6,6 UV-I 6,1 C 50 % 51 % 100 % 1031,4 hPa 0,0 l/m 2,4 km/h (1 Bft) 2 min 6,3 km/h (2 Bft)
27.09.2009 14:54 22,6 C 22,7 C 8,1 UV-I 6,1 C 50 % 51 % 100 % 1031,4 hPa 0,0 l/m 2,4 km/h (1 Bft) 2 min 0,0 km/h (0 Bft)
27.09.2009 14:56 22,7 C 22,7 C 8,1 UV-I 6,0 C 50 % 51 % 100 % 1031,9 hPa 0,0 l/m 2,6 km/h (1 Bft) 2 min 3,8 km/h (1 Bft)
27.09.2009 14:58 22,8 C 22,7 C 6,5 UV-I 5,9 C 50 % 50 % 100 % 1031,9 hPa 0,0 l/m 3,1 km/h (1 Bft) 2 min 0,0 km/h (0 Bft)
27.09.2009 15:00 22,8 C 22,7 C 6,5 UV-I 5,9 C 50 % 50 % 100 % 1031,9 hPa 0,0 l/m 3,4 km/h (1 Bft) 2 min 6,0 km/h (2 Bft)
27.09.2009 15:02 22,8 C 22,7 C 6,5 UV-I 6,0 C 49 % 50 % 100 % 1031,9 hPa 0,0 l/m 2,9 km/h (1 Bft) 2 min 4,8 km/h (1 Bft)
27.09.2009 15:04 22,9 C 22,7 C 4,8 UV-I 6,0 C 49 % 50 % 100 % 1031,9 hPa 0,0 l/m 2,9 km/h (1 Bft) 2 min 3,1 km/h (1 Bft)
27.09.2009 15:06 22,9 C 22,7 C 4,8 UV-I 6,1 C 49 % 50 % 100 % 1031,9 hPa 0,0 l/m 2,9 km/h (1 Bft) 2 min 0,0 km/h (0 Bft)
27.09.2009 15:08 23,0 C 22,6 C 7,2 UV-I 6,2 C 49 % 50 % 100 % 1031,9 hPa 0,0 l/m 2,2 km/h (1 Bft) 2 min 3,1 km/h (1 Bft)
27.09.2009 15:10 23,0 C 22,8 C 7,2 UV-I 6,2 C 49 % 50 % 100 % 1031,9 hPa 0,0 l/m 2,4 km/h (1 Bft) 2 min 4,1 km/h (1 Bft)
27.09.2009 15:12 23,0 C 22,8 C 7,2 UV-I 6,3 C 49 % 50 % 100 % 1031,9 hPa 0,0 l/m 2,2 km/h (1 Bft) 2 min 3,1 km/h (1 Bft)
27.09.2009 15:14 23,1 C 22,8 C 5,0 UV-I 6,3 C 48 % 48 % 100 % 1031,9 hPa 0,0 l/m 2,4 km/h (1 Bft) 2 min 5,5 km/h (1 Bft)
27.09.2009 15:16 23,2 C 22,8 C 5,0 UV-I 6,1 C 48 % 50 % 100 % 1031,6 hPa 0,0 l/m 2,4 km/h (1 Bft) 2 min 3,6 km/h (1 Bft)
27.09.2009 15:18 23,2 C 22,8 C 2,8 UV-I 6,0 C 48 % 50 % 100 % 1031,6 hPa 0,0 l/m 2,4 km/h (1 Bft) 2 min 5,1 km/h (1 Bft)
27.09.2009 15:20 23,2 C 22,9 C 2,8 UV-I 5,9 C 48 % 50 % 100 % 1031,6 hPa 0,0 l/m 2,4 km/h (1 Bft) 2 min 4,3 km/h (1 Bft)
27.09.2009 15:22 23,2 C 22,9 C 2,8 UV-I 5,9 C 48 % 50 % 100 % 1031,6 hPa 0,0 l/m 2,4 km/h (1 Bft) 2 min 3,4 km/h (1 Bft)
27.09.2009 15:24 23,2 C 22,9 C 2,8 UV-I 6,0 C 48 % 49 % 100 % 1031,6 hPa 0,0 l/m 2,2 km/h (1 Bft) 2 min 3,6 km/h (1 Bft)
27.09.2009 15:26 23,2 C 22,9 C 2,8 UV-I 5,9 C 48 % 49 % 100 % 1031,6 hPa 0,0 l/m 2,2 km/h (1 Bft) 2 min 4,3 km/h (1 Bft)
27.09.2009 15:28 23,4 C 22,9 C 2,5 UV-I 5,7 C 47 % 48 % 100 % 1031,6 hPa 0,0 l/m 2,6 km/h (1 Bft) 2 min 6,5 km/h (2 Bft)
27.09.2009 15:30 23,4 C 22,8 C 2,5 UV-I 5,7 C 47 % 48 % 100 % 1031,6 hPa 0,0 l/m 3,4 km/h (1 Bft) 2 min 6,7 km/h (2 Bft)
27.09.2009 15:32 23,5 C 22,8 C 2,5 UV-I 5,7 C 47 % 49 % 100 % 1031,6 hPa 0,0 l/m 3,1 km/h (1 Bft) 2 min 0,0 km/h (0 Bft)
27.09.2009 15:34 23,5 C 22,9 C 2,3 UV-I 5,6 C 47 % 49 % 100 % 1031,6 hPa 0,0 l/m 2,6 km/h (1 Bft) 2 min 3,1 km/h (1 Bft)
27.09.2009 15:36 23,6 C 22,9 C 2,3 UV-I 5,7 C 47 % 50 % 100 % 1030,8 hPa 0,0 l/m 2,4 km/h (1 Bft) 2 min 4,1 km/h (1 Bft)
27.09.2009 15:38 23,6 C 22,9 C 2,2 UV-I 5,9 C 47 % 49 % 100 % 1030,8 hPa 0,0 l/m 1,9 km/h (1 Bft) 2 min 3,1 km/h (1 Bft)
27.09.2009 15:40 23,6 C 23,0 C 2,2 UV-I 5,8 C 47 % 49 % 100 % 1030,8 hPa 0,0 l/m 1,4 km/h (1 Bft) 2 min 0,0 km/h (0 Bft)
27.09.2009 15:42 23,7 C 22,9 C 2,2 UV-I 6,0 C 47 % 49 % 100 % 1030,8 hPa 0,0 l/m 1,0 km/h (0 Bft) 2 min 2,4 km/h (1 Bft)
27.09.2009 15:44 23,7 C 22,8 C 2,2 UV-I 6,0 C 47 % 49 % 100 % 1030,8 hPa 0,0 l/m 1,2 km/h (1 Bft) 2 min 0,0 km/h (0 Bft)
27.09.2009 15:46 23,7 C 22,9 C 2,2 UV-I 6,0 C 46 % 49 % 100 % 1030,8 hPa 0,0 l/m 1,4 km/h (1 Bft) 2 min 7,2 km/h (2 Bft)
27.09.2009 15:48 23,8 C 22,9 C 2,3 UV-I 6,0 C 46 % 49 % 100 % 1030,8 hPa 0,0 l/m 1,2 km/h (1 Bft) 2 min 0,0 km/h (0 Bft)
27.09.2009 15:50 23,8 C 22,9 C 2,3 UV-I 6,1 C 46 % 49 % 100 % 1030,8 hPa 0,0 l/m 1,4 km/h (1 Bft) 2 min 0,0 km/h (0 Bft)
27.09.2009 15:52 23,8 C 22,9 C 2,3 UV-I 6,1 C 46 % 49 % 100 % 1030,8 hPa 0,0 l/m 1,2 km/h (1 Bft) 2 min 0,0 km/h (0 Bft)
27.09.2009 15:54 23,8 C 23,0 C 2,1 UV-I 6,1 C 46 % 49 % 100 % 1030,8 hPa 0,0 l/m 1,2 km/h (1 Bft) 2 min 4,3 km/h (1 Bft)
27.09.2009 15:56 23,9 C 22,9 C 2,1 UV-I 6,2 C 46 % 48 % 100 % 1030,4 hPa 0,0 l/m 1,9 km/h (1 Bft) 2 min 5,5 km/h (1 Bft)
27.09.2009 15:58 23,9 C 22,8 C 2,1 UV-I 6,1 C 46 % 48 % 100 % 1030,4 hPa 0,0 l/m 2,4 km/h (1 Bft) 2 min 4,1 km/h (1 Bft)
27.09.2009 16:00 24,0 C 22,9 C 2,1 UV-I 5,9 C 46 % 48 % 100 % 1030,4 hPa 0,0 l/m 2,2 km/h (1 Bft) 2 min 3,8 km/h (1 Bft)
27.09.2009 16:02 24,0 C 22,8 C 2,1 UV-I 5,8 C 46 % 48 % 100 % 1030,4 hPa 0,0 l/m 2,4 km/h (1 Bft) 2 min 2,4 km/h (1 Bft)
27.09.2009 16:04 24,0 C 22,7 C 2,0 UV-I 5,9 C 45 % 49 % 100 % 1030,4 hPa 0,0 l/m 2,2 km/h (1 Bft) 2 min 0,0 km/h (0 Bft)
27.09.2009 16:06 24,0 C 22,8 C 2,0 UV-I 5,8 C 45 % 49 % 100 % 1030,4 hPa 0,0 l/m 1,9 km/h (1 Bft) 2 min 3,1 km/h (1 Bft)
27.09.2009 16:08 24,0 C 22,7 C 1,9 UV-I 6,0 C 45 % 49 % 100 % 1030,4 hPa 0,0 l/m 1,7 km/h (1 Bft) 2 min 4,1 km/h (1 Bft)
27.09.2009 16:10 24,0 C 22,5 C 1,9 UV-I 6,1 C 45 % 49 % 100 % 1030,4 hPa 0,0 l/m 1,7 km/h (1 Bft) 2 min 4,1 km/h (1 Bft)
27.09.2009 16:12 24,1 C 22,5 C 1,9 UV-I 6,0 C 45 % 49 % 100 % 1030,4 hPa 0,0 l/m 1,7 km/h (1 Bft) 2 min 5,5 km/h (1 Bft)
27.09.2009 16:14 24,1 C 22,5 C 2,0 UV-I 5,9 C 45 % 49 % 100 % 1030,4 hPa 0,0 l/m 1,9 km/h (1 Bft) 2 min 0,0 km/h (0 Bft)
27.09.2009 16:16 24,1 C 22,5 C 2,0 UV-I 5,9 C 45 % 49 % 100 % 1030,5 hPa 0,0 l/m 2,2 km/h (1 Bft) 2 min 3,8 km/h (1 Bft)
27.09.2009 16:18 24,1 C 22,4 C 1,7 UV-I 6,0 C 45 % 49 % 100 % 1030,5 hPa 0,0 l/m 2,4 km/h (1 Bft) 2 min 3,8 km/h (1 Bft)
27.09.2009 16:20 24,1 C 22,4 C 1,7 UV-I 6,0 C 45 % 49 % 100 % 1030,5 hPa 0,0 l/m 2,2 km/h (1 Bft) 2 min 4,1 km/h (1 Bft)
27.09.2009 16:22 24,2 C 22,5 C 1,7 UV-I 5,9 C 45 % 48 % 100 % 1030,5 hPa 0,0 l/m 2,4 km/h (1 Bft) 2 min 6,0 km/h (2 Bft)
27.09.2009 16:24 24,2 C 22,3 C 1,8 UV-I 5,9 C 45 % 48 % 100 % 1030,5 hPa 0,0 l/m 2,9 km/h (1 Bft) 2 min 3,4 km/h (1 Bft)
27.09.2009 16:26 24,2 C 22,3 C 1,8 UV-I 5,6 C 45 % 49 % 100 % 1030,5 hPa 0,0 l/m 3,1 km/h (1 Bft) 2 min 0,0 km/h (0 Bft)
27.09.2009 16:28 24,2 C 22,2 C 1,8 UV-I 5,7 C 45 % 49 % 100 % 1030,5 hPa 0,0 l/m 2,9 km/h (1 Bft) 2 min 3,1 km/h (1 Bft)
27.09.2009 16:30 24,2 C 22,3 C 1,8 UV-I 5,5 C 45 % 49 % 100 % 1030,5 hPa 0,0 l/m 2,6 km/h (1 Bft) 2 min 10,3 km/h (2 Bft)
27.09.2009 16:32 24,2 C 22,1 C 1,8 UV-I 5,7 C 45 % 49 % 100 % 1030,5 hPa 0,0 l/m 2,6 km/h (1 Bft) 2 min 0,0 km/h (0 Bft)
27.09.2009 16:34 24,2 C 22,1 C 1,6 UV-I 5,6 C 45 % 50 % 100 % 1030,5 hPa 0,0 l/m 1,7 km/h (1 Bft) 2 min 0,0 km/h (0 Bft)
27.09.2009 16:36 24,2 C 22,1 C 1,6 UV-I 5,8 C 45 % 49 % 100 % 1029,6 hPa 0,0 l/m 1,2 km/h (1 Bft) 2 min 5,5 km/h (1 Bft)
27.09.2009 16:38 24,3 C 22,0 C 1,6 UV-I 6,0 C 45 % 48 % 100 % 1029,6 hPa 0,0 l/m 1,9 km/h (1 Bft) 2 min 6,7 km/h (2 Bft)
27.09.2009 16:40 24,3 C 21,9 C 1,6 UV-I 5,9 C 45 % 48 % 100 % 1029,6 hPa 0,0 l/m 2,4 km/h (1 Bft) 2 min 4,3 km/h (1 Bft)
27.09.2009 16:42 24,2 C 21,9 C 1,6 UV-I 5,6 C 45 % 49 % 100 % 1029,6 hPa 0,0 l/m 2,6 km/h (1 Bft) 2 min 7,7 km/h (2 Bft)
27.09.2009 16:44 24,2 C 21,9 C 1,5 UV-I 5,5 C 45 % 48 % 100 % 1029,6 hPa 0,0 l/m 3,1 km/h (1 Bft) 2 min 4,6 km/h (1 Bft)
27.09.2009 16:46 24,2 C 21,7 C 1,5 UV-I 5,4 C 45 % 49 % 100 % 1029,6 hPa 0,0 l/m 3,8 km/h (1 Bft) 2 min 0,0 km/h (0 Bft)
27.09.2009 16:48 24,2 C 21,7 C 1,3 UV-I 5,3 C 45 % 49 % 100 % 1029,6 hPa 0,0 l/m 3,1 km/h (1 Bft) 2 min 3,8 km/h (1 Bft)
27.09.2009 16:50 24,2 C 21,6 C 1,3 UV-I 5,5 C 45 % 49 % 100 % 1029,6 hPa 0,0 l/m 2,9 km/h (1 Bft) 2 min 4,3 km/h (1 Bft)
27.09.2009 16:52 24,1 C 21,7 C 1,3 UV-I 5,3 C 45 % 49 % 100 % 1029,6 hPa 0,0 l/m 3,1 km/h (1 Bft) 2 min 0,0 km/h (0 Bft)
27.09.2009 16:54 24,1 C 21,6 C 1,3 UV-I 5,4 C 45 % 49 % 100 % 1029,6 hPa 0,0 l/m 2,9 km/h (1 Bft) 2 min 4,6 km/h (1 Bft)
27.09.2009 16:56 24,1 C 21,6 C 1,3 UV-I 5,0 C 45 % 49 % 100 % 1028,6 hPa 0,0 l/m 2,6 km/h (1 Bft) 2 min 3,1 km/h (1 Bft)
27.09.2009 16:58 24,0 C 21,5 C 1,3 UV-I 4,8 C 45 % 49 % 100 % 1028,6 hPa 0,0 l/m 2,9 km/h (1 Bft) 2 min 4,6 km/h (1 Bft)
27.09.2009 17:00 24,0 C 21,5 C 1,3 UV-I 4,4 C 45 % 50 % 100 % 1028,6 hPa 0,0 l/m 2,9 km/h (1 Bft) 2 min 5,1 km/h (1 Bft)
27.09.2009 17:02 24,0 C 21,5 C 1,3 UV-I 4,0 C 45 % 51 % 100 % 1028,6 hPa 0,0 l/m 1,9 km/h (1 Bft) 2 min 0,0 km/h (0 Bft)
27.09.2009 17:04 24,0 C 21,4 C 1,2 UV-I 3,9 C 45 % 51 % 100 % 1028,6 hPa 0,0 l/m 1,7 km/h (1 Bft) 2 min 0,0 km/h (0 Bft)
27.09.2009 17:06 23,9 C 21,5 C 1,2 UV-I 3,7 C 45 % 51 % 100 % 1028,6 hPa 0,0 l/m 1,9 km/h (1 Bft) 2 min 4,1 km/h (1 Bft)
27.09.2009 17:08 23,8 C 21,4 C 1,0 UV-I 3,9 C 45 % 50 % 100 % 1028,6 hPa 0,0 l/m 1,9 km/h (1 Bft) 2 min 5,5 km/h (1 Bft)
27.09.2009 17:10 23,8 C 21,3 C 1,0 UV-I 3,9 C 45 % 50 % 100 % 1028,6 hPa 0,0 l/m 2,2 km/h (1 Bft) 2 min 7,9 km/h (2 Bft)
27.09.2009 17:12 23,8 C 21,2 C 1,0 UV-I 3,9 C 45 % 50 % 100 % 1028,6 hPa 0,0 l/m 2,6 km/h (1 Bft) 2 min 2,9 km/h (1 Bft)
27.09.2009 17:14 23,7 C 21,3 C 1,1 UV-I 3,9 C 45 % 51 % 100 % 1028,6 hPa 0,0 l/m 2,6 km/h (1 Bft) 2 min 5,5 km/h (1 Bft)
27.09.2009 17:16 23,7 C 21,2 C 1,1 UV-I 4,1 C 45 % 51 % 100 % 1027,6 hPa 0,0 l/m 3,1 km/h (1 Bft) 2 min 4,1 km/h (1 Bft)
27.09.2009 17:18 23,6 C 21,1 C 1,0 UV-I 4,3 C 45 % 51 % 100 % 1027,6 hPa 0,0 l/m 2,9 km/h (1 Bft) 2 min 0,0 km/h (0 Bft)
27.09.2009 17:20 23,6 C 21,1 C 1,0 UV-I 4,3 C 46 % 51 % 100 % 1027,6 hPa 0,0 l/m 2,6 km/h (1 Bft) 2 min 4,6 km/h (1 Bft)
27.09.2009 17:22 23,6 C 21,0 C 1,0 UV-I 4,2 C 46 % 51 % 100 % 1027,6 hPa 0,0 l/m 1,9 km/h (1 Bft) 2 min 2,9 km/h (1 Bft)
27.09.2009 17:24 23,5 C 21,1 C 1,2 UV-I 3,6 C 46 % 51 % 100 % 1027,6 hPa 0,0 l/m 2,2 km/h (1 Bft) 2 min 6,3 km/h (2 Bft)
27.09.2009 17:26 23,5 C 20,9 C 1,2 UV-I 3,2 C 46 % 51 % 91 % 1027,6 hPa 0,0 l/m 2,4 km/h (1 Bft) 2 min 4,6 km/h (1 Bft)
27.09.2009 17:28 23,4 C 20,9 C 0,9 UV-I 2,7 C 46 % 51 % 77 % 1027,6 hPa 0,0 l/m 2,2 km/h (1 Bft) 2 min 2,4 km/h (1 Bft)
27.09.2009 17:30 23,4 C 20,8 C 0,9 UV-I 2,4 C 46 % 51 % 69 % 1027,6 hPa 0,0 l/m 2,6 km/h (1 Bft) 2 min 4,1 km/h (1 Bft)
27.09.2009 17:32 23,4 C 20,8 C 0,9 UV-I 2,0 C 46 % 51 % 57 % 1027,6 hPa 0,0 l/m 2,6 km/h (1 Bft) 0 min 0,0 km/h (0 Bft)
27.09.2009 17:34 23,2 C 20,9 C 0,9 UV-I 1,7 C 46 % 52 % 49 % 1027,6 hPa 0,0 l/m 2,6 km/h (1 Bft) 0 min 2,9 km/h (1 Bft)
27.09.2009 17:36 23,3 C 20,9 C 0,9 UV-I 1,5 C 46 % 51 % 43 % 1027,2 hPa 0,0 l/m 2,2 km/h (1 Bft) 0 min 4,1 km/h (1 Bft)
27.09.2009 17:38 23,3 C 20,8 C 0,9 UV-I 1,4 C 46 % 51 % 40 % 1027,2 hPa 0,0 l/m 1,9 km/h (1 Bft) 0 min 2,4 km/h (1 Bft)
27.09.2009 17:40 23,2 C 20,7 C 0,9 UV-I 1,2 C 46 % 51 % 34 % 1027,2 hPa 0,0 l/m 2,2 km/h (1 Bft) 0 min 5,8 km/h (2 Bft)
27.09.2009 17:42 23,2 C 20,7 C 0,9 UV-I 1,0 C 46 % 52 % 29 % 1027,2 hPa 0,0 l/m 2,4 km/h (1 Bft) 0 min 4,6 km/h (1 Bft)
27.09.2009 17:44 23,2 C 20,6 C 0,6 UV-I 1,0 C 46 % 52 % 29 % 1027,2 hPa 0,0 l/m 2,4 km/h (1 Bft) 0 min 0,0 km/h (0 Bft)
27.09.2009 17:48 23,1 C 20,5 C 0,7 UV-I 0,7 C 46 % 52 % 20 % 1027,2 hPa 0,0 l/m 1,7 km/h (1 Bft) 0 min 0,0 km/h (0 Bft)
27.09.2009 17:50 23,0 C 20,5 C 0,7 UV-I 0,7 C 46 % 52 % 20 % 1027,2 hPa 0,0 l/m 2,2 km/h (1 Bft) 0 min 4,8 km/h (1 Bft)
27.09.2009 17:52 23,0 C 20,5 C 0,7 UV-I 0,5 C 46 % 52 % 14 % 1027,2 hPa 0,0 l/m 1,7 km/h (1 Bft) 0 min 5,5 km/h (1 Bft)
27.09.2009 17:58 22,9 C 20,3 C 0,6 UV-I 0,3 C 46 % 52 % 9 % 1027,0 hPa 0,0 l/m 2,6 km/h (1 Bft) 0 min 4,8 km/h (1 Bft)
27.09.2009 18:02 22,9 C 20,3 C 0,6 UV-I 0,1 C 47 % 53 % 3 % 1027,0 hPa 0,0 l/m 2,6 km/h (1 Bft) 0 min 3,6 km/h (1 Bft)
27.09.2009 18:04 22,8 C 20,3 C 0,5 UV-I 0,0 C 47 % 53 % 0 % 1027,0 hPa 0,0 l/m 2,4 km/h (1 Bft) 0 min 4,3 km/h (1 Bft)
27.09.2009 18:06 22,8 C 20,3 C 0,5 UV-I 0,0 C 47 % 53 % 0 % 1027,0 hPa 0,0 l/m 2,2 km/h (1 Bft) 0 min 2,6 km/h (1 Bft)
27.09.2009 18:08 22,8 C 20,2 C 0,5 UV-I 0,0 C 47 % 53 % 0 % 1027,0 hPa 0,0 l/m 1,7 km/h (1 Bft) 0 min 0,0 km/h (0 Bft)
27.09.2009 18:10 22,8 C 20,1 C 0,5 UV-I 0,0 C 47 % 53 % 0 % 1027,0 hPa 0,0 l/m 1,7 km/h (1 Bft) 0 min 0,0 km/h (0 Bft)
27.09.2009 18:12 22,8 C 20,1 C 0,5 UV-I 0,0 C 47 % 53 % 0 % 1027,0 hPa 0,0 l/m 1,4 km/h (1 Bft) 0 min 2,6 km/h (1 Bft)
27.09.2009 18:14 22,7 C 20,0 C 0,5 UV-I 0,0 C 47 % 54 % 0 % 1027,0 hPa 0,0 l/m 1,2 km/h (1 Bft) 0 min 0,0 km/h (0 Bft)
27.09.2009 18:18 22,7 C 20,1 C 0,3 UV-I 0,0 C 47 % 54 % 0 % 1026,6 hPa 0,0 l/m 0,7 km/h (0 Bft) 0 min 0,0 km/h (0 Bft)
27.09.2009 18:20 22,6 C 20,0 C 0,3 UV-I 0,0 C 47 % 54 % 0 % 1026,6 hPa 0,0 l/m 0,5 km/h (0 Bft) 0 min 0,0 km/h (0 Bft)
27.09.2009 18:22 22,6 C 19,9 C 0,3 UV-I 0,0 C 47 % 55 % 0 % 1026,6 hPa 0,0 l/m 0,2 km/h (0 Bft) 0 min 0,0 km/h (0 Bft)
27.09.2009 18:24 22,6 C 19,9 C 0,2 UV-I 0,0 C 47 % 55 % 0 % 1026,6 hPa 0,0 l/m 0,2 km/h (0 Bft) 0 min 0,0 km/h (0 Bft)
27.09.2009 18:26 22,6 C 19,9 C 0,2 UV-I 0,0 C 47 % 55 % 0 % 1026,6 hPa 0,0 l/m 0,2 km/h (0 Bft) 0 min 0,0 km/h (0 Bft)
27.09.2009 18:28 22,6 C 19,9 C 0,0 UV-I 0,0 C 48 % 55 % 0 % 1026,6 hPa 0,0 l/m 0,0 km/h (0 Bft) 0 min 0,0 km/h (0 Bft)
27.09.2009 18:30 22,5 C 19,9 C 0,0 UV-I 0,0 C 48 % 56 % 0 % 1026,6 hPa 0,0 l/m 0,0 km/h (0 Bft) 0 min 0,0 km/h (0 Bft)
27.09.2009 18:32 22,5 C 19,8 C 0,0 UV-I 0,0 C 48 % 56 % 0 % 1026,6 hPa 0,0 l/m 0,0 km/h (0 Bft) 0 min 0,0 km/h (0 Bft)
27.09.2009 18:34 22,5 C 19,7 C 0,0 UV-I 0,0 C 48 % 56 % 0 % 1026,6 hPa 0,0 l/m 0,2 km/h (0 Bft) 0 min 0,0 km/h (0 Bft)
27.09.2009 18:36 22,4 C 19,7 C 0,0 UV-I 0,0 C 48 % 56 % 0 % 1026,8 hPa 0,0 l/m 0,2 km/h (0 Bft) 0 min 4,8 km/h (1 Bft)
27.09.2009 18:38 22,4 C 19,6 C 0,0 UV-I 0,0 C 48 % 56 % 0 % 1026,8 hPa 0,0 l/m 0,2 km/h (0 Bft) 0 min 0,0 km/h (0 Bft)
27.09.2009 18:40 22,4 C 19,6 C 0,0 UV-I 0,0 C 48 % 56 % 0 % 1026,8 hPa 0,0 l/m 0,2 km/h (0 Bft) 0 min 2,4 km/h (1 Bft)
27.09.2009 18:42 22,4 C 19,5 C 0,0 UV-I 0,0 C 48 % 57 % 0 % 1026,8 hPa 0,0 l/m 0,2 km/h (0 Bft) 0 min 0,0 km/h (0 Bft)
27.09.2009 18:44 22,4 C 19,5 C 0,1 UV-I 0,0 C 48 % 57 % 0 % 1026,8 hPa 0,0 l/m 0,2 km/h (0 Bft) 0 min 0,0 km/h (0 Bft)
27.09.2009 18:48 22,2 C 19,4 C 0,0 UV-I 0,0 C 48 % 58 % 0 % 1026,8 hPa 0,0 l/m 0,0 km/h (0 Bft) 0 min 0,0 km/h (0 Bft)
27.09.2009 18:50 22,3 C 19,3 C 0,0 UV-I 0,0 C 48 % 58 % 0 % 1026,8 hPa 0,0 l/m 0,0 km/h (0 Bft) 0 min 0,0 km/h (0 Bft)
27.09.2009 18:52 22,3 C 19,2 C 0,0 UV-I 0,0 C 48 % 59 % 0 % 1026,8 hPa 0,0 l/m 0,0 km/h (0 Bft) 0 min 0,0 km/h (0 Bft)
27.09.2009 18:54 22,2 C 19,2 C 0,0 UV-I 0,0 C 48 % 59 % 0 % 1026,8 hPa 0,0 l/m 0,0 km/h (0 Bft) 0 min 0,0 km/h (0 Bft)
27.09.2009 18:56 22,2 C 19,2 C 0,0 UV-I 0,0 C 49 % 59 % 0 % 1026,8 hPa 0,0 l/m 0,0 km/h (0 Bft) 0 min 0,0 km/h (0 Bft)
27.09.2009 18:58 22,2 C 19,1 C 0,0 UV-I 0,0 C 49 % 60 % 0 % 1026,8 hPa 0,0 l/m 0,0 km/h (0 Bft) 0 min 0,0 km/h (0 Bft)
27.09.2009 19:00 22,2 C 19,1 C 0,0 UV-I 0,0 C 49 % 60 % 0 % 1026,8 hPa 0,0 l/m 0,0 km/h (0 Bft) 0 min 0,0 km/h (0 Bft)
27.09.2009 19:02 22,2 C 19,0 C 0,0 UV-I 0,0 C 49 % 61 % 0 % 1026,8 hPa 0,0 l/m 0,0 km/h (0 Bft) 0 min 0,0 km/h (0 Bft)
27.09.2009 19:04 22,2 C 18,9 C 0,0 UV-I 0,0 C 49 % 61 % 0 % 1026,8 hPa 0,0 l/m 0,0 km/h (0 Bft) 0 min 0,0 km/h (0 Bft)
27.09.2009 19:06 22,1 C 18,8 C 0,0 UV-I 0,0 C 49 % 61 % 0 % 1026,8 hPa 0,0 l/m 0,0 km/h (0 Bft) 0 min 0,0 km/h (0 Bft)
27.09.2009 19:08 22,1 C 18,8 C 0,0 UV-I 0,0 C 49 % 61 % 0 % 1026,8 hPa 0,0 l/m 0,0 km/h (0 Bft) 0 min 0,0 km/h (0 Bft)
27.09.2009 19:10 22,0 C 18,6 C 0,0 UV-I 0,0 C 49 % 62 % 0 % 1026,8 hPa 0,0 l/m 0,0 km/h (0 Bft) 0 min 0,0 km/h (0 Bft)
27.09.2009 19:12 22,0 C 18,7 C 0,0 UV-I 0,0 C 49 % 62 % 0 % 1026,8 hPa 0,0 l/m 0,0 km/h (0 Bft) 0 min 0,0 km/h (0 Bft)
27.09.2009 19:18 22,0 C 18,4 C 0,0 UV-I 0,0 C 50 % 63 % 0 % 1026,9 hPa 0,0 l/m 0,0 km/h (0 Bft) 0 min 0,0 km/h (0 Bft)
27.09.2009 19:22 21,9 C 18,2 C 0,0 UV-I 0,0 C 50 % 63 % 0 % 1026,9 hPa 0,0 l/m 0,0 km/h (0 Bft) 0 min 0,0 km/h (0 Bft)
27.09.2009 19:24 21,9 C 18,2 C 0,0 UV-I 0,0 C 50 % 64 % 0 % 1026,9 hPa 0,0 l/m 0,0 km/h (0 Bft) 0 min 0,0 km/h (0 Bft)
27.09.2009 19:26 21,9 C 18,0 C 0,0 UV-I 0,0 C 50 % 64 % 0 % 1026,9 hPa 0,0 l/m 0,0 km/h (0 Bft) 0 min 0,0 km/h (0 Bft)
27.09.2009 19:28 21,8 C 18,0 C 0,0 UV-I 0,0 C 50 % 65 % 0 % 1026,9 hPa 0,0 l/m 0,0 km/h (0 Bft) 0 min 0,0 km/h (0 Bft)
27.09.2009 19:30 21,8 C 17,8 C 0,0 UV-I 0,0 C 50 % 65 % 0 % 1026,9 hPa 0,0 l/m 0,0 km/h (0 Bft) 0 min 0,0 km/h (0 Bft)
27.09.2009 19:32 21,8 C 17,9 C 0,0 UV-I 0,0 C 51 % 65 % 0 % 1026,9 hPa 0,0 l/m 0,0 km/h (0 Bft) 0 min 0,0 km/h (0 Bft)
27.09.2009 19:34 21,7 C 17,7 C 0,0 UV-I 0,0 C 51 % 65 % 0 % 1026,9 hPa 0,0 l/m 0,0 km/h (0 Bft) 0 min 0,0 km/h (0 Bft)
27.09.2009 19:36 21,7 C 17,7 C 0,0 UV-I 0,0 C 51 % 66 % 0 % 1026,7 hPa 0,0 l/m 0,0 km/h (0 Bft) 0 min 0,0 km/h (0 Bft)
27.09.2009 19:38 21,7 C 17,5 C 0,0 UV-I 0,0 C 51 % 66 % 0 % 1026,7 hPa 0,0 l/m 0,0 km/h (0 Bft) 0 min 0,0 km/h (0 Bft)
27.09.2009 19:40 21,7 C 17,5 C 0,0 UV-I 0,0 C 51 % 67 % 0 % 1026,7 hPa 0,0 l/m 0,0 km/h (0 Bft) 0 min 0,0 km/h (0 Bft)
27.09.2009 19:42 21,6 C 17,3 C 0,0 UV-I 0,0 C 51 % 67 % 0 % 1026,7 hPa 0,0 l/m 0,0 km/h (0 Bft) 0 min 0,0 km/h (0 Bft)
27.09.2009 19:44 21,6 C 17,2 C 0,0 UV-I 0,0 C 51 % 67 % 0 % 1026,7 hPa 0,0 l/m 0,0 km/h (0 Bft) 0 min 0,0 km/h (0 Bft)
27.09.2009 19:46 21,6 C 17,1 C 0,0 UV-I 0,0 C 51 % 68 % 0 % 1026,7 hPa 0,0 l/m 0,0 km/h (0 Bft) 0 min 0,0 km/h (0 Bft)
27.09.2009 19:48 21,6 C 17,1 C 0,0 UV-I 0,0 C 52 % 68 % 0 % 1026,7 hPa 0,0 l/m 0,0 km/h (0 Bft) 0 min 0,0 km/h (0 Bft)
27.09.2009 19:52 21,5 C 16,9 C 0,0 UV-I 0,0 C 52 % 68 % 0 % 1026,7 hPa 0,0 l/m 0,0 km/h (0 Bft) 0 min 0,0 km/h (0 Bft)
27.09.2009 19:54 21,5 C 16,9 C 0,0 UV-I 0,0 C 52 % 68 % 0 % 1026,7 hPa 0,0 l/m 0,0 km/h (0 Bft) 0 min 0,0 km/h (0 Bft)
27.09.2009 19:56 21,5 C 16,7 C 0,0 UV-I 0,0 C 52 % 69 % 0 % 1026,4 hPa 0,0 l/m 0,0 km/h (0 Bft) 0 min 0,0 km/h (0 Bft)
27.09.2009 19:58 21,4 C 16,7 C 0,0 UV-I 0,0 C 52 % 69 % 0 % 1026,4 hPa 0,0 l/m 0,0 km/h (0 Bft) 0 min 0,0 km/h (0 Bft)
27.09.2009 20:00 21,4 C 16,5 C 0,0 UV-I 0,0 C 52 % 69 % 0 % 1026,4 hPa 0,0 l/m 0,0 km/h (0 Bft) 0 min 0,0 km/h (0 Bft)
27.09.2009 20:02 21,4 C 16,4 C 0,0 UV-I 0,0 C 52 % 70 % 0 % 1026,4 hPa 0,0 l/m 0,0 km/h (0 Bft) 0 min 0,0 km/h (0 Bft)
27.09.2009 20:04 21,4 C 16,4 C 0,0 UV-I 0,0 C 52 % 70 % 0 % 1026,4 hPa 0,0 l/m 0,0 km/h (0 Bft) 0 min 0,0 km/h (0 Bft)
27.09.2009 20:06 21,4 C 16,3 C 0,0 UV-I 0,0 C 52 % 70 % 0 % 1026,4 hPa 0,0 l/m 0,0 km/h (0 Bft) 0 min 0,0 km/h (0 Bft)
27.09.2009 20:08 21,2 C 16,3 C 0,0 UV-I 0,0 C 52 % 71 % 0 % 1026,4 hPa 0,0 l/m 0,0 km/h (0 Bft) 0 min 0,0 km/h (0 Bft)
27.09.2009 20:10 21,2 C 16,2 C 0,0 UV-I 0,0 C 52 % 71 % 0 % 1026,4 hPa 0,0 l/m 0,0 km/h (0 Bft) 0 min 0,0 km/h (0 Bft)
27.09.2009 20:12 21,2 C 16,1 C 0,0 UV-I 0,0 C 53 % 71 % 0 % 1026,4 hPa 0,0 l/m 0,0 km/h (0 Bft) 0 min 0,0 km/h (0 Bft)
27.09.2009 20:14 21,3 C 16,1 C 0,0 UV-I 0,0 C 53 % 71 % 0 % 1026,4 hPa 0,0 l/m 0,0 km/h (0 Bft) 0 min 0,0 km/h (0 Bft)
27.09.2009 20:16 21,2 C 15,9 C 0,0 UV-I 0,0 C 53 % 71 % 0 % 1026,8 hPa 0,0 l/m 0,0 km/h (0 Bft) 0 min 0,0 km/h (0 Bft)
27.09.2009 20:18 21,2 C 15,9 C 0,0 UV-I 0,0 C 53 % 72 % 0 % 1026,8 hPa 0,0 l/m 0,0 km/h (0 Bft) 0 min 0,0 km/h (0 Bft)
27.09.2009 20:20 21,2 C 15,7 C 0,0 UV-I 0,0 C 53 % 72 % 0 % 1026,8 hPa 0,0 l/m 0,0 km/h (0 Bft) 0 min 0,0 km/h (0 Bft)
27.09.2009 20:22 21,2 C 15,6 C 0,0 UV-I 0,0 C 53 % 72 % 0 % 1026,8 hPa 0,0 l/m 0,0 km/h (0 Bft) 0 min 0,0 km/h (0 Bft)
27.09.2009 20:24 21,2 C 15,6 C 0,0 UV-I 0,0 C 53 % 73 % 0 % 1026,8 hPa 0,0 l/m 0,0 km/h (0 Bft) 0 min 0,0 km/h (0 Bft)
27.09.2009 20:26 21,2 C 15,5 C 0,0 UV-I 0,0 C 53 % 73 % 0 % 1026,8 hPa 0,0 l/m 0,0 km/h (0 Bft) 0 min 0,0 km/h (0 Bft)
27.09.2009 20:28 21,1 C 15,5 C 0,0 UV-I 0,0 C 53 % 73 % 0 % 1026,8 hPa 0,0 l/m 0,0 km/h (0 Bft) 0 min 0,0 km/h (0 Bft)
27.09.2009 20:30 21,1 C 15,3 C 0,0 UV-I 0,0 C 53 % 73 % 0 % 1026,8 hPa 0,0 l/m 0,0 km/h (0 Bft) 0 min 0,0 km/h (0 Bft)
27.09.2009 20:32 21,1 C 15,3 C 0,0 UV-I 0,0 C 53 % 73 % 0 % 1026,8 hPa 0,0 l/m 0,0 km/h (0 Bft) 0 min 0,0 km/h (0 Bft)
27.09.2009 20:34 21,0 C 15,3 C 0,0 UV-I 0,0 C 53 % 74 % 0 % 1026,8 hPa 0,0 l/m 0,0 km/h (0 Bft) 0 min 0,0 km/h (0 Bft)
27.09.2009 20:36 21,0 C 15,1 C 0,0 UV-I 0,0 C 53 % 74 % 0 % 1026,8 hPa 0,0 l/m 0,0 km/h (0 Bft) 0 min 0,0 km/h (0 Bft)
27.09.2009 20:38 21,0 C 15,0 C 0,0 UV-I 0,0 C 53 % 74 % 0 % 1026,8 hPa 0,0 l/m 0,0 km/h (0 Bft) 0 min 0,0 km/h (0 Bft)
27.09.2009 20:42 21,0 C 14,9 C 0,0 UV-I 0,0 C 54 % 75 % 0 % 1026,8 hPa 0,0 l/m 0,0 km/h (0 Bft) 0 min 0,0 km/h (0 Bft)
27.09.2009 20:44 20,9 C 14,8 C 0,0 UV-I 0,0 C 54 % 75 % 0 % 1026,8 hPa 0,0 l/m 0,0 km/h (0 Bft) 0 min 0,0 km/h (0 Bft)
27.09.2009 20:46 20,9 C 14,8 C 0,0 UV-I 0,0 C 54 % 75 % 0 % 1026,8 hPa 0,0 l/m 0,0 km/h (0 Bft) 0 min 0,0 km/h (0 Bft)
27.09.2009 20:48 20,9 C 14,8 C 0,0 UV-I 0,0 C 54 % 75 % 0 % 1026,8 hPa 0,0 l/m 0,0 km/h (0 Bft) 0 min 0,0 km/h (0 Bft)
27.09.2009 20:50 20,9 C 14,6 C 0,0 UV-I 0,0 C 54 % 75 % 0 % 1026,8 hPa 0,0 l/m 0,0 km/h (0 Bft) 0 min 0,0 km/h (0 Bft)
27.09.2009 20:52 20,9 C 14,7 C 0,0 UV-I 0,0 C 54 % 75 % 0 % 1026,8 hPa 0,0 l/m 0,0 km/h (0 Bft) 0 min 0,0 km/h (0 Bft)
27.09.2009 20:54 20,9 C 14,5 C 0,0 UV-I 0,0 C 54 % 76 % 0 % 1026,8 hPa 0,0 l/m 0,0 km/h (0 Bft) 0 min 0,0 km/h (0 Bft)
27.09.2009 20:56 20,8 C 14,4 C 0,0 UV-I 0,0 C 54 % 76 % 0 % 1026,4 hPa 0,0 l/m 0,0 km/h (0 Bft) 0 min 0,0 km/h (0 Bft)
27.09.2009 20:58 20,8 C 14,4 C 0,0 UV-I 0,0 C 54 % 76 % 0 % 1026,4 hPa 0,0 l/m 0,0 km/h (0 Bft) 0 min 0,0 km/h (0 Bft)
27.09.2009 21:00 20,8 C 14,3 C 0,0 UV-I 0,0 C 54 % 76 % 0 % 1026,4 hPa 0,0 l/m 0,0 km/h (0 Bft) 0 min 0,0 km/h (0 Bft)
27.09.2009 21:02 20,8 C 14,2 C 0,0 UV-I 0,0 C 54 % 77 % 0 % 1026,4 hPa 0,0 l/m 0,0 km/h (0 Bft) 0 min 0,0 km/h (0 Bft)
27.09.2009 21:04 20,8 C 14,1 C 0,0 UV-I 0,0 C 54 % 77 % 0 % 1026,4 hPa 0,0 l/m 0,0 km/h (0 Bft) 0 min 0,0 km/h (0 Bft)
27.09.2009 21:06 20,8 C 14,1 C 0,0 UV-I 0,0 C 54 % 77 % 0 % 1026,4 hPa 0,0 l/m 0,0 km/h (0 Bft) 0 min 0,0 km/h (0 Bft)
27.09.2009 21:08 20,8 C 14,0 C 0,0 UV-I 0,0 C 54 % 77 % 0 % 1026,4 hPa 0,0 l/m 0,0 km/h (0 Bft) 0 min 0,0 km/h (0 Bft)
27.09.2009 21:10 20,7 C 14,0 C 0,0 UV-I 0,0 C 54 % 77 % 0 % 1026,4 hPa 0,0 l/m 0,0 km/h (0 Bft) 0 min 0,0 km/h (0 Bft)
27.09.2009 21:12 20,7 C 13,9 C 0,0 UV-I 0,0 C 54 % 77 % 0 % 1026,4 hPa 0,0 l/m 0,0 km/h (0 Bft) 0 min 0,0 km/h (0 Bft)
27.09.2009 21:14 20,7 C 13,9 C 0,0 UV-I 0,0 C 54 % 78 % 0 % 1026,4 hPa 0,0 l/m 0,0 km/h (0 Bft) 0 min 0,0 km/h (0 Bft)
27.09.2009 21:16 20,7 C 13,9 C 0,0 UV-I 0,0 C 54 % 78 % 0 % 1026,8 hPa 0,0 l/m 0,0 km/h (0 Bft) 0 min 0,0 km/h (0 Bft)
27.09.2009 21:20 20,6 C 13,7 C 0,0 UV-I 0,0 C 54 % 78 % 0 % 1026,8 hPa 0,0 l/m 0,0 km/h (0 Bft) 0 min 0,0 km/h (0 Bft)
27.09.2009 21:22 20,6 C 13,6 C 0,0 UV-I 0,0 C 54 % 78 % 0 % 1026,8 hPa 0,0 l/m 0,0 km/h (0 Bft) 0 min 0,0 km/h (0 Bft)
27.09.2009 21:24 20,6 C 13,6 C 0,0 UV-I 0,0 C 54 % 78 % 0 % 1026,8 hPa 0,0 l/m 0,0 km/h (0 Bft) 0 min 0,0 km/h (0 Bft)
27.09.2009 21:26 20,6 C 13,5 C 0,0 UV-I 0,0 C 54 % 79 % 0 % 1026,8 hPa 0,0 l/m 0,0 km/h (0 Bft) 0 min 0,0 km/h (0 Bft)
27.09.2009 21:28 20,6 C 13,5 C 0,0 UV-I 0,0 C 54 % 79 % 0 % 1026,8 hPa 0,0 l/m 0,0 km/h (0 Bft) 0 min 0,0 km/h (0 Bft)
27.09.2009 21:30 20,6 C 13,5 C 0,0 UV-I 0,0 C 54 % 79 % 0 % 1026,8 hPa 0,0 l/m 0,0 km/h (0 Bft) 0 min 0,0 km/h (0 Bft)
27.09.2009 21:32 20,5 C 13,3 C 0,0 UV-I 0,0 C 54 % 79 % 0 % 1026,8 hPa 0,0 l/m 0,0 km/h (0 Bft) 0 min 0,0 km/h (0 Bft)
27.09.2009 21:36 20,5 C 13,2 C 0,0 UV-I 0,0 C 54 % 79 % 0 % 1026,6 hPa 0,0 l/m 0,0 km/h (0 Bft) 0 min 0,0 km/h (0 Bft)
27.09.2009 21:38 20,5 C 13,2 C 0,0 UV-I 0,0 C 55 % 80 % 0 % 1026,6 hPa 0,0 l/m 0,0 km/h (0 Bft) 0 min 0,0 km/h (0 Bft)
27.09.2009 21:40 20,5 C 13,2 C 0,0 UV-I 0,0 C 54 % 80 % 0 % 1026,6 hPa 0,0 l/m 0,0 km/h (0 Bft) 0 min 0,0 km/h (0 Bft)
27.09.2009 21:42 20,5 C 13,1 C 0,0 UV-I 0,0 C 55 % 80 % 0 % 1026,6 hPa 0,0 l/m 0,0 km/h (0 Bft) 0 min 0,0 km/h (0 Bft)
27.09.2009 21:44 20,5 C 13,1 C 0,0 UV-I 0,0 C 54 % 80 % 0 % 1026,6 hPa 0,0 l/m 0,0 km/h (0 Bft) 0 min 0,0 km/h (0 Bft)
27.09.2009 21:46 20,5 C 13,1 C 0,0 UV-I 0,0 C 54 % 80 % 0 % 1026,6 hPa 0,0 l/m 0,0 km/h (0 Bft) 0 min 0,0 km/h (0 Bft)
27.09.2009 21:48 20,5 C 12,9 C 0,0 UV-I 0,0 C 54 % 80 % 0 % 1026,6 hPa 0,0 l/m 0,0 km/h (0 Bft) 0 min 0,0 km/h (0 Bft)
27.09.2009 21:50 20,4 C 12,9 C 0,0 UV-I 0,0 C 54 % 81 % 0 % 1026,6 hPa 0,0 l/m 0,0 km/h (0 Bft) 0 min 0,0 km/h (0 Bft)
27.09.2009 21:52 20,4 C 12,8 C 0,0 UV-I 0,0 C 54 % 81 % 0 % 1026,6 hPa 0,0 l/m 0,0 km/h (0 Bft) 0 min 0,0 km/h (0 Bft)
27.09.2009 21:54 20,4 C 12,8 C 0,0 UV-I 0,0 C 54 % 81 % 0 % 1026,6 hPa 0,0 l/m 0,0 km/h (0 Bft) 0 min 0,0 km/h (0 Bft)
27.09.2009 21:56 20,4 C 12,8 C 0,0 UV-I 0,0 C 54 % 81 % 0 % 1026,9 hPa 0,0 l/m 0,0 km/h (0 Bft) 0 min 0,0 km/h (0 Bft)
27.09.2009 21:58 20,4 C 12,7 C 0,0 UV-I 0,0 C 54 % 81 % 0 % 1026,9 hPa 0,0 l/m 0,0 km/h (0 Bft) 0 min 0,0 km/h (0 Bft)
27.09.2009 22:00 20,4 C 12,6 C 0,0 UV-I 0,0 C 54 % 81 % 0 % 1026,9 hPa 0,0 l/m 0,0 km/h (0 Bft) 0 min 0,0 km/h (0 Bft)
27.09.2009 22:02 20,4 C 12,7 C 0,0 UV-I 0,0 C 54 % 81 % 0 % 1026,9 hPa 0,0 l/m 0,0 km/h (0 Bft) 0 min 0,0 km/h (0 Bft)
27.09.2009 22:06 20,4 C 12,5 C 0,0 UV-I 0,0 C 54 % 81 % 0 % 1026,9 hPa 0,0 l/m 0,0 km/h (0 Bft) 0 min 0,0 km/h (0 Bft)
27.09.2009 22:10 20,4 C 12,4 C 0,0 UV-I 0,0 C 54 % 81 % 0 % 1026,9 hPa 0,0 l/m 0,0 km/h (0 Bft) 0 min 0,0 km/h (0 Bft)
27.09.2009 22:12 20,4 C 12,4 C 0,0 UV-I 0,0 C 54 % 81 % 0 % 1026,9 hPa 0,0 l/m 0,0 km/h (0 Bft) 0 min 0,0 km/h (0 Bft)
27.09.2009 22:14 20,2 C 12,4 C 0,0 UV-I 0,0 C 54 % 81 % 0 % 1026,9 hPa 0,0 l/m 0,0 km/h (0 Bft) 0 min 0,0 km/h (0 Bft)
27.09.2009 22:16 20,2 C 12,3 C 0,0 UV-I 0,0 C 54 % 82 % 0 % 1026,9 hPa 0,0 l/m 0,0 km/h (0 Bft) 0 min 0,0 km/h (0 Bft)
27.09.2009 22:20 20,2 C 12,3 C 0,0 UV-I 0,0 C 54 % 82 % 0 % 1026,9 hPa 0,0 l/m 0,0 km/h (0 Bft) 0 min 0,0 km/h (0 Bft)
27.09.2009 22:22 20,3 C 12,2 C 0,0 UV-I 0,0 C 54 % 82 % 0 % 1026,9 hPa 0,0 l/m 0,0 km/h (0 Bft) 0 min 0,0 km/h (0 Bft)
27.09.2009 22:24 20,3 C 12,1 C 0,0 UV-I 0,0 C 54 % 82 % 0 % 1026,9 hPa 0,0 l/m 0,0 km/h (0 Bft) 0 min 0,0 km/h (0 Bft)
27.09.2009 22:26 20,3 C 12,1 C 0,0 UV-I 0,0 C 54 % 82 % 0 % 1026,9 hPa 0,0 l/m 0,0 km/h (0 Bft) 0 min 0,0 km/h (0 Bft)
27.09.2009 22:28 20,3 C 12,0 C 0,0 UV-I 0,0 C 54 % 82 % 0 % 1026,9 hPa 0,0 l/m 0,0 km/h (0 Bft) 0 min 0,0 km/h (0 Bft)
27.09.2009 22:34 20,2 C 11,9 C 0,0 UV-I 0,0 C 54 % 83 % 0 % 1026,9 hPa 0,0 l/m 0,0 km/h (0 Bft) 0 min 0,0 km/h (0 Bft)
27.09.2009 22:36 20,2 C 11,9 C 0,0 UV-I 0,0 C 54 % 83 % 0 % 1026,7 hPa 0,0 l/m 0,0 km/h (0 Bft) 0 min 0,0 km/h (0 Bft)
27.09.2009 22:38 20,2 C 11,8 C 0,0 UV-I 0,0 C 54 % 83 % 0 % 1026,7 hPa 0,0 l/m 0,0 km/h (0 Bft) 0 min 0,0 km/h (0 Bft)
27.09.2009 22:40 20,2 C 11,9 C 0,0 UV-I 0,0 C 54 % 83 % 0 % 1026,7 hPa 0,0 l/m 0,0 km/h (0 Bft) 0 min 0,0 km/h (0 Bft)
27.09.2009 22:44 20,2 C 11,7 C 0,0 UV-I 0,0 C 54 % 83 % 0 % 1026,7 hPa 0,0 l/m 0,0 km/h (0 Bft) 0 min 0,0 km/h (0 Bft)
27.09.2009 22:46 20,2 C 11,7 C 0,0 UV-I 0,0 C 54 % 84 % 0 % 1026,7 hPa 0,0 l/m 0,0 km/h (0 Bft) 0 min 0,0 km/h (0 Bft)
27.09.2009 22:50 20,2 C 11,6 C 0,0 UV-I 0,0 C 54 % 84 % 0 % 1026,7 hPa 0,0 l/m 0,0 km/h (0 Bft) 0 min 0,0 km/h (0 Bft)
27.09.2009 22:52 20,2 C 11,6 C 0,0 UV-I 0,0 C 54 % 84 % 0 % 1026,7 hPa 0,0 l/m 0,0 km/h (0 Bft) 0 min 0,0 km/h (0 Bft)
27.09.2009 22:54 20,1 C 11,6 C 0,0 UV-I 0,0 C 54 % 84 % 0 % 1026,7 hPa 0,0 l/m 0,0 km/h (0 Bft) 0 min 0,0 km/h (0 Bft)
27.09.2009 22:56 20,1 C 11,6 C 0,0 UV-I 0,0 C 54 % 84 % 0 % 1026,6 hPa 0,0 l/m 0,0 km/h (0 Bft) 0 min 0,0 km/h (0 Bft)
27.09.2009 22:58 20,1 C 11,5 C 0,0 UV-I 0,0 C 54 % 84 % 0 % 1026,6 hPa 0,0 l/m 0,0 km/h (0 Bft) 0 min 0,0 km/h (0 Bft)
27.09.2009 23:00 20,1 C 11,5 C 0,0 UV-I 0,0 C 54 % 84 % 0 % 1026,6 hPa 0,0 l/m 0,0 km/h (0 Bft) 0 min 0,0 km/h (0 Bft)
27.09.2009 23:02 20,1 C 11,5 C 0,0 UV-I 0,0 C 54 % 84 % 0 % 1026,6 hPa 0,0 l/m 0,0 km/h (0 Bft) 0 min 0,0 km/h (0 Bft)
27.09.2009 23:08 20,0 C 11,3 C 0,0 UV-I 0,0 C 54 % 84 % 0 % 1026,6 hPa 0,0 l/m 0,0 km/h (0 Bft) 0 min 0,0 km/h (0 Bft)
27.09.2009 23:10 20,1 C 11,3 C 0,0 UV-I 0,0 C 54 % 84 % 0 % 1026,6 hPa 0,0 l/m 0,0 km/h (0 Bft) 0 min 0,0 km/h (0 Bft)
27.09.2009 23:12 20,0 C 11,3 C 0,0 UV-I 0,0 C 54 % 84 % 0 % 1026,6 hPa 0,0 l/m 0,0 km/h (0 Bft) 0 min 0,0 km/h (0 Bft)
27.09.2009 23:14 20,0 C 11,2 C 0,0 UV-I 0,0 C 54 % 85 % 0 % 1026,6 hPa 0,0 l/m 0,0 km/h (0 Bft) 0 min 0,0 km/h (0 Bft)
27.09.2009 23:16 20,0 C 11,2 C 0,0 UV-I 0,0 C 54 % 85 % 0 % 1026,5 hPa 0,0 l/m 0,0 km/h (0 Bft) 0 min 0,0 km/h (0 Bft)
27.09.2009 23:18 20,0 C 11,3 C 0,0 UV-I 0,0 C 54 % 85 % 0 % 1026,5 hPa 0,0 l/m 0,0 km/h (0 Bft) 0 min 0,0 km/h (0 Bft)
27.09.2009 23:20 20,0 C 11,2 C 0,0 UV-I 0,0 C 55 % 85 % 0 % 1026,5 hPa 0,0 l/m 0,0 km/h (0 Bft) 0 min 0,0 km/h (0 Bft)
27.09.2009 23:22 20,0 C 11,2 C 0,0 UV-I 0,0 C 55 % 85 % 0 % 1026,5 hPa 0,0 l/m 0,0 km/h (0 Bft) 0 min 0,0 km/h (0 Bft)
27.09.2009 23:24 20,0 C 11,1 C 0,0 UV-I 0,0 C 55 % 85 % 0 % 1026,5 hPa 0,0 l/m 0,0 km/h (0 Bft) 0 min 0,0 km/h (0 Bft)
27.09.2009 23:26 20,0 C 11,1 C 0,0 UV-I 0,0 C 55 % 86 % 0 % 1026,5 hPa 0,0 l/m 0,0 km/h (0 Bft) 0 min 0,0 km/h (0 Bft)
27.09.2009 23:28 20,0 C 11,0 C 0,0 UV-I 0,0 C 55 % 86 % 0 % 1026,5 hPa 0,0 l/m 0,0 km/h (0 Bft) 0 min 0,0 km/h (0 Bft)
27.09.2009 23:30 20,0 C 11,1 C 0,0 UV-I 0,0 C 55 % 86 % 0 % 1026,5 hPa 0,0 l/m 0,0 km/h (0 Bft) 0 min 0,0 km/h (0 Bft)
27.09.2009 23:32 20,0 C 11,1 C 0,0 UV-I 0,0 C 55 % 86 % 0 % 1026,5 hPa 0,0 l/m 0,0 km/h (0 Bft) 0 min 0,0 km/h (0 Bft)
27.09.2009 23:34 20,0 C 10,9 C 0,0 UV-I 0,0 C 55 % 86 % 0 % 1026,5 hPa 0,0 l/m 0,0 km/h (0 Bft) 0 min 0,0 km/h (0 Bft)
27.09.2009 23:36 20,0 C 10,9 C 0,0 UV-I 0,0 C 55 % 86 % 0 % 1026,7 hPa 0,0 l/m 0,0 km/h (0 Bft) 0 min 0,0 km/h (0 Bft)
27.09.2009 23:38 20,0 C 10,9 C 0,0 UV-I 0,0 C 55 % 86 % 0 % 1026,7 hPa 0,0 l/m 0,0 km/h (0 Bft) 0 min 0,0 km/h (0 Bft)
27.09.2009 23:40 20,0 C 10,9 C 0,0 UV-I 0,0 C 55 % 86 % 0 % 1026,7 hPa 0,0 l/m 0,0 km/h (0 Bft) 0 min 0,0 km/h (0 Bft)
27.09.2009 23:42 20,0 C 10,8 C 0,0 UV-I 0,0 C 55 % 86 % 0 % 1026,7 hPa 0,0 l/m 0,0 km/h (0 Bft) 0 min 0,0 km/h (0 Bft)
27.09.2009 23:44 20,0 C 10,8 C 0,0 UV-I 0,0 C 55 % 86 % 0 % 1026,7 hPa 0,0 l/m 0,0 km/h (0 Bft) 0 min 0,0 km/h (0 Bft)
27.09.2009 23:46 20,0 C 10,9 C 0,0 UV-I 0,0 C 55 % 86 % 0 % 1026,7 hPa 0,0 l/m 0,0 km/h (0 Bft) 0 min 0,0 km/h (0 Bft)
27.09.2009 23:48 20,0 C 10,8 C 0,0 UV-I 0,0 C 55 % 86 % 0 % 1026,7 hPa 0,0 l/m 0,0 km/h (0 Bft) 0 min 0,0 km/h (0 Bft)
27.09.2009 23:50 20,0 C 10,8 C 0,0 UV-I 0,0 C 54 % 86 % 0 % 1026,7 hPa 0,0 l/m 0,0 km/h (0 Bft) 0 min 0,0 km/h (0 Bft)
27.09.2009 23:52 20,0 C 10,8 C 0,0 UV-I 0,0 C 55 % 86 % 0 % 1026,7 hPa 0,0 l/m 0,0 km/h (0 Bft) 0 min 0,0 km/h (0 Bft)
27.09.2009 23:56 20,0 C 10,7 C 0,0 UV-I 0,0 C 55 % 86 % 0 % 1026,8 hPa 0,0 l/m 0,0 km/h (0 Bft) 0 min 0,0 km/h (0 Bft)
27.09.2009 23:58 20,0 C 10,7 C 0,0 UV-I 0,0 C 55 % 86 % 0 % 1026,8 hPa 0,0 l/m 0,0 km/h (0 Bft) 0 min 0,0 km/h (0 Bft)
_ Min-Zeit 08:54 07:54 00:03 00:03 16:04 15:14 00:03 06:16 - 00:03 - 00:03
Minimum _ 18,2 C 6,5 C 0,0 UV-I 0,0 C 45 % 48 % 0 % 1025,9 hPa - 0,0 km/h (0 Bft) - 0,0 km/h (0 Bft)
_ Max-Zeit 16:38 15:40 12:38 12:14 10:50 10:04 09:50 14:56 00:03 16:46 09:50 16:30
Maximum _ 24,3 C 23,0 C 9,9 UV-I 9,9 C 57 % 95 % 100 % 1031,9 hPa 0,0 l/m 3,8 km/h
O-NO (1 Bft)
2 min 10,3 km/h
SW (2 Bft)
Durchschnitt _ 20,3 C 13,6 C 1,7 UV-I 2,3 C 53 % 77 % 34 % 1027,3 hPa #0,0 l/m 0,6 km/h (0 Bft) #6:34 h 1,0 km/h (0 Bft)
© 2012 W. Hausmann